                ,  0.675,  0.825,  0.975,  1.125,  1.275,  1.425,  1.575,  1.725,  1.875,  2.025,  2.175,  2.325,  2.475,  2.625,  2.775,  2.925,  3.075,  3.225,  3.375,  3.525,  3.675,  3.825,  3.975,  4.125,  4.275,  4.425,  4.575,  4.725,  4.875,  5.025,  5.175,  5.325,  5.475,  5.625,  5.775,  5.925,  6.075,  6.225,  6.375,  6.525,  6.675,  6.825,  6.975,  7.125,  7.275,  7.425,  7.575,  7.725,  7.875,  8.025,  8.175,  8.325,  8.475,  8.625,  8.775,  8.925,  9.075,  9.225,  9.375,  9.525,  9.675,  9.825,  9.975
2005/08/24 00:00,  999.0,    0.4,    0.5,   -0.1,   -0.5,    0.2,    0.1,    0.2,   -0.1,   -0.7,    0.2,  999.0,  999.0,    0.7,   -0.0,    0.1,    0.2,    0.5,    0.1,   -0.3,   -0.3,   -0.5,   -0.5,   -0.4,   -0.3,   -0.2,   -0.5,  999.0,   -1.0,   -1.0,   -1.9,   -2.3,   -2.3,   -2.4,   -2.3,   -2.1,   -1.8,   -1.6,   -1.6,   -1.7,   -1.6,   -1.6,   -1.7,   -1.7,   -1.7,   -1.6,   -1.6,   -1.6,   -1.5,   -1.5,   -1.0,   -1.2,   -1.3,   -0.8,   -1.5,   -1.5,   -1.9,   -2.2,   -1.9,   -1.8,   -1.7,   -1.5,   -1.4
2005/08/24 00:10,  999.0,   -0.0,    0.2,    0.1,    0.4,    0.5,    0.1,    0.1,    0.1,   -0.0,   -0.5,    0.3,    1.0,    0.1,    0.1,    0.4,    0.1,    0.1,   -0.0,   -0.1,   -0.2,   -0.1,   -0.1,   -0.1,   -0.1,  999.0,   -0.5,   -1.3,   -1.7,   -1.9,   -2.1,   -2.2,   -2.1,   -1.9,   -1.8,   -1.6,   -1.5,   -1.5,   -1.3,   -1.2,   -1.2,   -1.1,   -1.1,   -1.2,   -1.3,   -1.2,   -1.2,   -1.1,   -1.0,   -1.0,   -1.1,   -1.1,   -1.1,   -1.1,   -0.8,   -0.8,   -0.9,   -1.1,   -1.0,   -1.1,   -1.2,   -0.9,   -1.1
2005/08/24 00:20,  999.0,    0.1,  999.0,    0.0,   -0.0,  999.0,  999.0,    0.2,    0.1,   -0.1,    0.3,    0.2,   -0.1,    0.2,    0.1,    0.0,    0.2,    0.2,    0.0,   -0.1,   -0.0,   -0.0,   -0.1,    0.1,  999.0,  999.0,   -1.2,   -1.3,   -1.3,   -1.4,   -1.4,   -1.4,   -1.4,   -1.4,   -1.2,   -1.3,   -1.4,   -1.3,   -1.2,   -1.3,   -1.3,   -1.2,   -1.1,   -1.1,   -1.0,   -0.9,   -0.9,   -0.9,   -0.9,   -0.9,   -0.9,   -0.8,   -1.0,   -1.0,   -1.0,   -0.9,   -0.9,   -0.9,   -0.8,   -0.8,   -0.8,   -0.7,   -0.5
2005/08/24 00:30,  999.0,   -0.3,   -0.0,   -0.0,   -0.3,    0.2,   -0.4,  999.0,    0.5,   -0.2,   -0.4,    0.1,   -0.1,    0.3,    0.2,    0.2,    0.1,    0.1,   -0.1,   -0.2,   -1.0,   -1.1,   -0.6,  999.0,  999.0,  999.0,  999.0,  999.0,   -1.3,   -1.4,   -1.1,   -1.3,   -1.4,   -1.4,   -1.4,   -1.3,   -1.3,   -1.4,   -1.4,   -1.3,   -1.3,   -1.2,   -1.1,   -1.1,   -1.1,   -1.0,   -1.1,   -1.1,   -1.1,   -1.1,   -1.1,   -1.1,   -1.0,   -1.0,   -0.9,   -0.9,   -1.0,   -1.0,   -0.9,   -0.9,   -0.7,  999.0,  999.0
2005/08/24 00:40,  999.0,    0.1,    0.1,   -0.0,   -0.0,   -0.0,    0.0,    0.1,   -0.0,    0.3,    0.5,   -0.1,    0.2,    0.0,  999.0,    0.2,    0.3,    0.3,    0.3,  999.0,   -2.5,  999.0,  999.0,  999.0,  999.0,  999.0,  999.0,  999.0,   -1.0,   -1.0,   -1.2,   -1.3,   -1.4,   -1.5,   -1.6,   -1.6,   -1.6,   -1.6,   -1.6,   -1.5,   -1.4,   -1.2,   -1.1,   -1.0,   -0.9,   -0.9,   -1.0,   -1.2,   -1.3,   -1.4,   -1.4,   -1.4,   -1.3,   -1.3,   -1.2,   -1.1,   -1.1,   -1.1,   -0.9,   -0.9,   -0.8,   -0.8,   -0.8
2005/08/24 00:50,  999.0,    0.0,    0.3,    0.3,    0.2,    0.0,    0.6,    0.3,    0.7,    0.8,    0.3,    0.0,   -0.6,   -0.5,  999.0,   -0.1,   -0.0,  999.0,   -0.1,   -0.1,   -0.1,  999.0,  999.0,  999.0,  999.0,  999.0,   -1.1,   -1.2,   -1.3,   -1.3,   -1.3,   -1.3,   -1.4,   -1.4,   -1.4,   -1.3,   -1.2,   -1.3,   -1.3,   -1.1,   -1.1,   -1.0,   -1.0,   -0.9,   -0.9,   -0.9,   -0.9,   -1.0,   -1.1,   -1.1,   -1.1,   -1.0,   -0.9,   -1.0,   -1.0,   -0.8,   -0.9,   -0.9,   -1.0,   -0.8,   -0.7,  999.0,  999.0
2005/08/24 01:00,  999.0,    0.0,    0.3,    0.3,  999.0,    0.0,    0.6,   -0.3,   -0.1,    0.3,   -0.6,   -1.2,   -1.3,   -1.3,   -1.7,   -2.4,   -1.8,   -2.7,   -3.7,   -3.8,   -3.4,   -3.1,   -3.0,   -2.7,   -2.3,   -1.8,   -1.1,   -1.1,   -1.2,   -1.2,   -1.3,   -1.4,   -1.4,   -1.3,   -1.2,   -1.2,   -1.2,   -1.1,   -1.1,   -1.1,   -1.1,   -0.9,   -0.9,   -0.9,   -1.0,   -1.0,   -1.1,   -1.1,   -1.2,   -1.1,   -1.0,   -1.1,   -1.1,   -1.1,   -1.0,   -0.9,   -0.9,   -0.9,   -0.9,  999.0,  999.0,  999.0,  999.0
2005/08/24 01:10,  999.0,  999.0,  999.0,   -1.7,   -1.8,   -1.3,   -2.3,   -2.9,   -3.5,   -3.0,  999.0,   -3.1,   -3.5,   -3.5,   -3.1,   -3.7,   -3.9,   -4.2,   -3.8,   -3.8,   -3.8,   -3.9,   -4.3,  999.0,  999.0,   -2.3,   -1.5,   -1.3,   -1.3,   -1.0,   -1.1,   -1.2,   -1.2,   -1.3,   -1.5,   -1.4,   -1.4,   -1.3,   -1.2,   -1.2,   -1.2,   -1.2,   -1.1,   -1.0,   -1.1,   -1.1,   -1.1,   -1.2,   -1.4,   -1.3,   -1.2,   -1.2,   -1.2,   -1.1,   -1.0,   -0.8,   -0.8,  999.0,  999.0,  999.0,  999.0,  999.0,  999.0
2005/08/24 01:20,  999.0,   -3.7,   -3.2,   -1.4,   -1.5,   -1.4,   -1.4,   -1.6,   -1.5,   -2.2,   -1.9,  999.0,   -3.7,  999.0,  999.0,   -3.1,   -3.4,   -3.5,   -3.4,   -3.1,   -2.9,   -2.6,   -3.2,   -3.0,   -2.9,   -1.7,   -1.2,   -1.2,   -1.2,   -1.7,   -1.6,   -1.5,   -1.5,   -1.5,   -1.5,   -1.5,   -1.4,   -1.3,   -1.3,   -1.3,   -1.3,   -1.3,   -1.2,   -1.1,   -1.1,   -1.0,   -1.1,   -1.1,   -1.2,   -1.3,   -1.3,   -1.2,   -1.1,   -1.0,   -1.1,   -1.0,   -1.0,   -0.9,   -1.0,  999.0,  999.0,   -0.9,  999.0
2005/08/24 01:30,  999.0,   -0.3,   -0.6,   -0.9,   -1.2,   -0.0,  999.0,  999.0,   -2.2,   -2.7,  999.0,   -4.6,   -4.6,   -3.7,   -3.7,   -3.6,   -3.8,   -4.0,   -4.2,   -4.1,   -4.4,   -4.8,   -5.1,   -5.0,   -3.8,   -1.8,   -1.3,   -1.3,   -1.6,   -1.7,   -1.7,   -1.7,   -1.7,   -1.6,   -1.6,   -1.5,   -1.5,   -1.5,   -1.4,   -1.3,   -1.3,   -1.4,   -1.2,   -1.2,   -1.2,   -1.1,   -1.1,   -1.2,   -1.3,   -1.3,   -1.2,   -1.0,   -1.0,   -0.8,   -0.9,   -0.9,   -0.7,   -0.6,   -0.6,   -0.3,  999.0,  999.0,  999.0
2005/08/24 01:40,  999.0,   -4.9,   -4.8,   -4.6,   -4.0,   -4.1,   -4.6,   -4.3,   -4.8,   -4.7,   -4.5,   -4.7,   -4.6,   -4.4,   -4.5,   -4.5,   -4.7,   -4.9,   -5.0,   -5.0,   -4.9,   -4.8,   -4.7,   -5.0,   -3.7,  999.0,   -1.5,   -1.5,   -1.6,   -1.6,   -1.6,   -1.5,   -1.6,   -1.5,   -1.5,   -1.5,   -1.5,   -1.5,   -1.4,   -1.3,   -1.2,   -1.1,   -1.0,   -1.0,   -0.9,   -0.9,   -0.7,   -0.5,   -0.6,   -0.7,   -0.4,   -0.6,   -0.6,   -0.7,   -0.7,   -0.5,   -0.5,   -0.3,   -0.4,   -0.3,   -0.2,   -0.6,  999.0
2005/08/24 01:50,  999.0,   -3.8,   -3.6,   -3.8,   -4.1,   -4.0,   -3.8,   -4.1,   -4.1,   -4.1,   -4.2,   -4.2,   -4.1,   -4.1,   -4.4,   -4.5,   -4.9,   -4.9,   -5.0,   -5.0,   -5.1,   -5.2,   -5.4,   -5.3,   -3.2,  999.0,   -1.7,   -1.6,   -1.8,   -1.8,   -1.8,   -1.9,   -2.0,   -2.1,   -2.0,   -2.1,   -2.1,   -2.1,   -1.9,   -1.9,   -1.8,   -1.7,   -1.5,   -1.4,   -1.2,   -1.1,   -0.8,   -0.6,   -0.8,   -0.7,   -0.6,   -0.7,   -0.5,   -0.4,   -0.5,   -0.4,   -0.5,   -0.6,   -0.8,  999.0,  999.0,  999.0,  999.0
2005/08/24 02:00,  999.0,   -5.4,   -5.2,   -5.2,   -5.1,   -5.3,   -5.3,   -5.3,   -5.3,   -5.3,   -5.3,   -5.3,   -5.6,   -5.6,   -5.7,   -5.6,   -5.7,   -5.6,   -5.5,   -5.3,   -5.4,   -5.7,   -5.7,   -4.7,  999.0,  999.0,   -2.2,   -2.1,   -2.1,   -2.4,   -2.6,   -2.8,   -2.8,   -2.8,   -2.8,   -2.7,   -2.5,   -2.4,   -2.3,   -2.2,   -2.0,   -1.8,   -1.6,   -1.4,   -1.1,   -0.9,   -0.6,   -0.7,   -0.7,   -0.8,   -0.9,   -1.1,   -1.1,   -1.1,   -1.0,   -0.9,   -0.7,   -0.7,   -0.6,   -0.6,   -0.3,   -0.4,   -0.2
2005/08/24 02:10,  999.0,   -5.4,   -5.6,   -5.3,   -5.2,   -5.4,   -5.5,   -5.6,   -5.7,   -6.0,   -5.9,   -6.0,   -6.1,   -6.2,   -6.3,   -6.4,   -6.3,   -6.3,   -6.2,   -6.1,   -6.1,   -6.3,   -6.1,   -5.0,   -3.7,  999.0,   -2.8,   -2.4,   -2.4,   -2.4,   -2.3,   -2.2,   -2.3,   -2.2,   -2.3,   -2.3,   -2.3,   -2.1,   -2.2,   -2.0,   -1.7,   -1.3,   -1.0,   -1.0,   -0.8,   -0.7,   -0.7,   -0.6,   -0.4,   -0.6,   -0.5,   -0.7,   -0.7,   -0.5,  999.0,  999.0,  999.0,  999.0,   -0.3,   -0.4,  999.0,  999.0,  999.0
2005/08/24 02:20,  999.0,   -4.6,   -4.7,   -4.5,   -4.7,   -4.5,   -4.6,   -4.6,   -4.6,   -4.6,   -4.7,   -4.8,   -4.9,   -5.0,   -5.2,   -5.3,   -5.3,   -5.3,   -5.3,   -5.4,   -5.7,   -6.1,   -5.6,   -5.5,   -5.1,   -3.4,   -2.7,   -2.3,   -2.2,   -2.0,   -2.0,   -1.8,   -1.8,   -1.7,   -1.7,   -1.6,   -1.5,   -1.4,   -1.4,   -1.4,   -1.3,   -1.2,   -1.0,   -0.9,   -0.9,   -0.8,   -0.8,   -0.8,   -0.8,   -0.8,   -0.7,   -0.5,   -0.6,   -0.5,   -0.4,   -0.1,   -0.3,   -0.7,  999.0,   -0.3,   -1.6,  999.0,  999.0
2005/08/24 02:30,  999.0,   -4.7,   -4.0,   -4.3,   -4.3,   -5.3,   -5.4,   -5.5,   -5.7,   -6.2,   -6.3,   -6.4,   -6.7,   -6.9,   -7.1,   -7.2,   -7.4,   -7.6,   -7.8,   -8.1,   -8.3,   -8.5,   -8.7,   -7.9,   -5.6,  999.0,   -2.9,   -2.2,   -2.1,   -1.9,   -1.8,   -1.7,   -1.6,   -1.6,   -1.4,   -1.4,   -1.4,   -1.3,   -1.2,   -1.1,   -1.1,   -1.1,   -1.1,   -1.0,   -0.8,   -0.7,   -0.6,   -0.8,   -0.9,   -0.5,   -0.6,   -0.7,   -0.7,   -0.2,    0.1,  999.0,  999.0,  999.0,  999.0,  999.0,   -1.8,   -3.1,   -3.0
2005/08/24 02:40,  999.0,   -7.1,   -7.1,   -6.5,   -6.8,   -6.9,   -6.5,   -6.5,   -6.3,   -6.3,   -6.3,   -6.0,   -6.0,   -6.0,   -6.0,   -6.3,   -6.2,   -6.1,   -6.1,   -5.9,   -6.0,   -6.1,   -5.9,   -6.0,   -5.2,   -4.3,   -3.3,   -2.4,   -1.9,   -1.7,   -1.8,   -1.8,   -1.5,   -1.5,   -1.2,   -1.6,   -1.7,   -1.6,   -1.3,   -1.1,   -1.2,   -1.0,   -1.1,   -1.0,   -1.0,   -0.8,   -0.8,   -1.1,   -1.0,   -0.9,   -1.3,   -1.3,   -0.8,   -0.7,   -0.7,   -0.7,   -0.6,   -0.7,   -0.6,   -0.7,   -0.5,   -0.7,   -0.7
2005/08/24 02:50,  999.0,   -5.6,  999.0,   -7.4,   -6.2,   -6.4,   -6.5,   -6.6,   -6.8,   -7.0,   -7.1,   -7.1,   -7.2,   -7.3,   -7.3,   -7.5,   -7.6,   -8.4,   -8.6,   -8.2,   -8.5,   -9.2,   -9.2,   -8.7,   -7.2,   -5.5,  999.0,  999.0,   -2.1,   -2.0,   -1.9,   -1.9,   -1.7,   -1.5,   -1.3,   -1.2,   -1.2,   -1.2,   -1.2,   -1.1,   -1.1,   -1.0,   -0.9,   -0.8,   -0.7,   -0.7,   -0.7,   -0.8,   -0.7,   -0.6,   -0.7,   -0.8,   -0.7,   -0.7,   -0.6,   -0.4,   -0.4,   -0.4,   -0.4,   -0.3,   -0.3,   -0.2,   -0.0
2005/08/24 03:00,  999.0,   -7.6,   -7.7,   -7.8,   -7.8,   -8.0,   -8.0,   -8.3,   -8.3,   -8.5,   -8.4,   -8.5,   -8.5,   -8.6,   -8.5,   -8.5,   -8.7,   -8.9,   -8.9,   -8.9,   -8.9,   -9.1,   -9.2,   -8.6,   -7.4,  999.0,  999.0,  999.0,   -2.2,   -2.0,   -2.0,   -1.8,   -1.8,   -1.6,   -1.6,   -1.6,   -1.6,   -1.6,   -1.6,   -1.6,   -1.4,   -1.2,   -0.9,   -0.8,   -0.5,   -0.4,   -0.5,   -0.5,   -0.7,   -0.6,   -0.7,   -0.8,   -0.7,   -0.6,   -0.5,   -0.4,   -0.3,   -0.5,   -0.5,   -0.6,   -0.4,   -0.2,   -0.1
2005/08/24 03:10,  999.0,   -7.8,   -7.8,   -7.8,   -7.9,   -8.0,   -8.2,   -8.2,   -8.4,   -8.5,   -8.6,   -8.6,   -8.6,   -8.6,   -8.5,   -8.2,   -8.3,   -8.3,   -8.3,   -8.3,   -8.3,   -7.8,   -7.8,   -7.8,   -6.9,  999.0,  999.0,  999.0,   -2.3,  999.0,   -2.6,   -2.2,   -2.1,   -2.1,   -2.0,   -2.0,   -2.0,   -1.8,   -1.7,   -1.6,   -1.4,   -1.2,   -1.0,   -0.8,   -0.5,   -0.4,   -0.4,   -0.4,   -0.5,   -0.4,   -0.3,   -0.1,   -0.1,    0.0,    0.1,    0.1,    0.1,    0.2,    0.3,    0.3,    0.1,   -0.2,   -0.4
2005/08/24 03:20,  999.0,   -7.0,   -7.0,   -7.2,   -7.3,   -7.3,   -7.4,   -7.3,   -7.4,   -7.3,   -7.4,   -7.5,   -7.4,   -7.4,   -7.5,   -7.4,   -7.8,   -7.3,   -7.5,   -8.0,   -7.9,   -7.3,   -7.3,   -7.0,   -6.8,   -6.2,  999.0,  999.0,  999.0,   -2.3,   -2.8,   -2.3,   -2.4,   -2.6,   -2.7,   -2.7,   -2.3,   -2.0,   -1.8,   -1.3,   -1.2,   -1.0,   -0.9,   -0.8,   -0.7,   -0.7,   -0.6,   -0.7,   -0.7,   -0.7,   -0.7,   -0.7,   -0.6,   -0.6,   -0.8,   -0.7,   -0.7,   -0.7,   -0.8,   -0.7,   -0.6,   -0.4,   -0.3
2005/08/24 03:30,  999.0,   -7.0,   -7.3,   -7.4,   -7.5,   -7.5,   -7.6,   -7.6,   -7.8,   -7.7,   -8.2,   -8.1,   -8.2,   -8.2,   -8.1,   -7.8,   -7.9,   -8.1,   -8.0,   -8.1,   -8.2,   -8.3,   -8.2,   -8.2,   -7.9,   -6.8,   -5.5,  999.0,  999.0,   -1.8,   -2.5,   -2.0,   -1.8,   -1.9,   -2.2,   -1.8,   -1.5,   -1.6,   -1.5,   -1.5,   -1.4,   -1.3,   -1.2,   -1.1,   -1.0,   -0.9,   -0.7,   -0.7,   -0.6,   -0.5,   -0.5,   -0.5,   -0.4,   -0.5,   -0.6,   -0.6,   -0.7,   -0.8,   -0.8,   -0.8,   -0.9,   -2.0,  999.0
2005/08/24 03:40,  999.0,   -6.7,   -6.9,   -7.0,   -7.0,   -7.0,   -7.0,   -6.7,   -6.6,   -6.4,   -6.3,   -6.1,   -5.9,   -5.9,   -5.9,   -6.1,   -6.1,   -6.0,   -6.3,   -6.1,   -6.1,   -6.4,   -6.1,   -6.2,   -6.3,   -5.6,  999.0,  999.0,  999.0,  999.0,   -2.7,   -3.0,   -2.5,   -2.4,   -2.8,   -2.6,   -1.5,   -1.4,   -1.3,   -1.3,   -1.3,   -1.3,   -1.2,   -1.1,   -1.0,   -0.8,   -0.6,   -0.5,   -0.4,   -0.3,   -1.0,   -1.3,   -1.3,   -1.8,   -2.0,   -1.6,   -2.7,   -3.0,  999.0,  999.0,  999.0,  999.0,  999.0
2005/08/24 03:50,  999.0,   -5.2,   -4.8,   -4.9,   -5.3,   -5.3,   -5.3,   -5.3,   -5.2,   -5.1,   -5.0,   -5.0,   -4.9,   -4.8,   -4.8,   -4.6,   -4.6,   -4.4,   -4.4,   -4.4,   -4.3,   -4.4,   -4.4,   -4.7,   -4.6,   -4.5,   -3.8,  999.0,  999.0,   -1.5,   -2.4,   -1.6,   -1.6,   -1.5,   -1.4,   -1.3,   -1.3,   -1.3,   -1.4,   -1.4,   -1.4,   -1.3,   -1.2,   -0.9,   -0.8,   -0.7,   -0.5,   -0.6,   -0.3,   -0.3,   -0.2,   -0.3,   -0.3,   -0.5,  999.0,  999.0,  999.0,  999.0,  999.0,  999.0,  999.0,  999.0,  999.0
2005/08/24 04:00,  999.0,   -3.7,   -4.3,   -3.8,   -3.7,   -3.8,   -3.9,   -3.3,   -3.0,   -2.9,   -2.6,   -3.8,   -3.7,   -4.3,   -4.2,   -4.6,   -4.4,   -4.2,   -5.0,   -4.6,   -4.2,   -4.1,   -4.1,   -4.3,   -4.1,   -3.4,   -2.1,   -1.9,   -1.8,   -1.7,   -1.6,   -1.8,   -1.7,   -1.7,   -1.6,   -1.5,   -1.4,   -1.3,   -1.5,   -1.6,   -1.6,   -1.5,   -1.3,   -1.1,   -0.9,   -0.7,   -0.5,   -0.4,    0.1,    0.1,    0.3,  999.0,  999.0,  999.0,  999.0,  999.0,  999.0,  999.0,  999.0,  999.0,  999.0,  999.0,  999.0
2005/08/24 04:10,  999.0,   -4.1,   -4.2,   -3.9,   -3.9,   -3.9,   -4.1,   -4.1,   -3.9,   -4.1,   -4.1,   -4.1,   -4.1,   -4.1,   -4.2,   -4.2,   -4.1,   -4.1,   -4.3,   -4.3,   -4.3,   -4.3,   -4.2,   -4.1,   -4.1,   -2.9,   -1.8,   -1.8,   -1.9,   -1.8,   -1.6,   -1.5,   -1.4,   -1.3,   -1.3,   -1.3,   -1.3,   -1.2,   -1.2,   -1.2,   -1.2,   -1.2,   -1.1,   -1.0,   -1.0,   -0.9,   -0.9,   -1.0,   -0.9,  999.0,   -1.1,  999.0,   -1.3,  999.0,  999.0,  999.0,  999.0,  999.0,  999.0,  999.0,  999.0,  999.0,  999.0
2005/08/24 04:20,  999.0,   -4.0,   -4.1,   -4.1,   -4.2,   -4.2,   -4.0,   -3.9,   -3.8,   -3.7,   -3.8,   -3.8,   -3.6,   -3.7,   -3.8,   -3.7,   -3.9,   -4.0,   -3.8,   -3.9,   -3.9,   -4.2,   -4.2,   -3.9,   -3.9,   -2.8,   -1.9,   -1.7,   -1.8,   -1.7,   -1.7,   -1.7,   -1.5,   -1.4,   -1.3,   -1.2,   -1.4,   -1.6,   -1.4,   -1.2,   -1.2,   -1.1,   -1.1,   -0.9,   -0.8,   -0.6,   -0.7,   -0.9,   -1.1,   -1.1,   -1.1,   -1.2,   -1.2,   -1.1,   -1.1,  999.0,  999.0,  999.0,  999.0,  999.0,  999.0,  999.0,  999.0
2005/08/24 04:30,  999.0,   -4.4,   -4.4,   -4.5,   -4.6,   -4.3,   -4.2,   -4.1,   -4.2,   -3.9,   -3.8,   -3.9,   -3.8,   -3.6,   -3.7,   -3.7,   -3.6,   -3.6,   -3.6,   -3.7,   -3.6,   -3.6,   -3.6,   -2.9,   -2.7,   -1.6,   -1.3,   -1.3,   -1.3,   -1.4,   -1.3,   -1.5,   -1.4,   -1.4,   -1.1,   -1.1,   -0.9,   -1.0,   -1.0,   -0.9,   -1.0,   -0.8,   -0.7,   -0.6,   -0.8,   -0.5,   -0.8,   -0.6,   -0.9,   -0.9,   -0.9,   -1.0,   -0.9,  999.0,   -0.8,  999.0,  999.0,  999.0,  999.0,  999.0,  999.0,  999.0,  999.0
2005/08/24 04:40,  999.0,   -3.4,   -3.3,   -2.8,   -2.4,   -2.5,   -2.8,   -2.2,   -1.0,   -1.7,   -1.5,   -1.1,  999.0,   -0.9,   -0.8,   -0.9,   -0.4,   -2.1,   -1.4,   -1.4,   -3.6,   -3.6,  999.0,   -6.3,   -9.4,   -9.4,   -9.4,   -8.3,   -8.4,   -7.4,   -8.1,   -6.8,   -7.4,   -6.8,   -6.8,   -6.7,   -0.5,   -0.6,   -0.9,   -1.3,   -1.1,   -0.7,   -0.4,   -0.1,   -0.2,   -0.4,   -0.4,  999.0,   -4.6,  999.0,  999.0,   -9.5,   -9.4,  999.0,  999.0,  999.0,  999.0,  999.0,  999.0,  999.0,  999.0,  999.0,  999.0
2005/08/24 04:50,  999.0,   -1.4,  999.0,   -1.5,   -1.4,   -1.1,   -1.0,   -0.1,   -0.3,   -0.5,   -0.2,    0.1,   -0.8,  999.0,   -2.1,    0.2,   -4.6,   -3.0,   -6.3,   -5.8,   -7.5,   -5.8,   -9.4,   -8.4,   -9.4,   -9.4,   -9.4,   -9.4,   -9.4,   -9.4,   -7.5,   -7.5,   -7.0,   -5.6,   -6.3,   -5.6,   -6.1,   -4.6,   -3.8,   -3.6,   -3.6,   -4.2,   -4.0,   -4.1,   -2.6,   -9.4,   -5.6,   -9.4,   -9.5,   -9.4,   -9.5,  999.0,   -9.5,   -9.4,  999.0,  999.0,  999.0,  999.0,  999.0,  999.0,  999.0,  999.0,  999.0
2005/08/24 05:00,  999.0,   -0.2,   -1.1,   -1.0,   -1.3,   -0.7,   -0.7,   -0.6,    0.1,   -0.2,   -0.1,   -0.4,   -0.1,   -1.1,   -4.4,   -1.7,   -0.1,   -1.2,   -2.9,   -3.9,   -5.7,   -3.7,   -5.0,   -5.9,   -9.4,   -9.4,   -9.4,   -9.4,   -9.4,   -9.4,   -9.4,   -9.4,   -9.4,   -9.4,   -9.4,   -9.4,   -9.4,   -9.4,   -9.4,   -9.4,   -9.4,   -9.4,   -9.4,   -9.4,   -9.4,   -9.4,   -9.4,   -9.4,   -9.4,   -9.5,   -9.4,   -9.4,  999.0,   -9.5,  999.0,  999.0,  999.0,  999.0,  999.0,  999.0,  999.0,  999.0,  999.0
2005/08/24 05:10,  999.0,  999.0,    0.2,    0.0,   -0.0,    0.1,    0.1,    0.1,    0.0,    0.1,    0.1,   -0.0,  999.0,   -0.1,   -0.1,   -0.0,    0.1,    0.1,   -0.1,    0.1,   -0.4,   -0.4,  999.0,  999.0,  999.0,  999.0,  999.0,  999.0,  999.0,  999.0,  999.0,  999.0,  999.0,   -9.4,   -9.4,   -9.4,   -9.4,   -9.4,   -9.4,   -9.4,   -9.4,   -9.4,   -9.4,   -9.4,   -9.4,   -9.4,   -9.4,   -9.4,   -9.4,   -9.4,   -9.4,   -9.4,  999.0,  999.0,   -9.3,  999.0,  999.0,  999.0,  999.0,  999.0,  999.0,  999.0,  999.0
2005/08/24 05:20,  999.0,    0.2,    0.2,    0.1,    0.1,   -0.1,   -0.0,    0.0,    0.1,    0.1,    0.0,    0.0,   -0.1,   -0.1,   -0.1,   -0.2,   -0.1,    0.0,    0.0,   -0.1,   -0.0,   -0.1,   -0.2,  999.0,  999.0,  999.0,  999.0,  999.0,  999.0,  999.0,  999.0,  999.0,   -9.4,   -9.4,   -9.4,   -9.4,   -9.4,   -9.4,   -9.4,   -9.4,   -9.4,   -9.4,   -9.4,   -9.4,   -9.4,   -9.4,   -9.4,   -9.4,   -9.5,   -9.4,   -9.4,   -9.4,  999.0,   -9.4,  999.0,  999.0,  999.0,   -9.3,  999.0,  999.0,  999.0,  999.0,  999.0
2005/08/24 05:30,  999.0,    0.1,    0.2,    0.1,    0.1,   -0.1,    0.1,   -0.0,    0.1,    0.1,    0.1,    0.2,    0.1,  999.0,    0.2,    0.0,    0.0,    0.2,    0.1,    0.1,   -0.2,   -0.3,   -0.2,  999.0,  999.0,  999.0,  999.0,  999.0,  999.0,  999.0,  999.0,  999.0,  999.0,  999.0,    9.4,    3.1,   -0.0,    3.1,   -0.0,   -0.0,   -0.0,    0.0,   -0.0,    3.1,    0.0,   -0.0,   -3.2,    0.0,    3.1,   -0.0,   -0.0,   -0.0,    3.1,  999.0,  999.0,  999.0,  999.0,  999.0,  999.0,  999.0,  999.0,  999.0,  999.0
2005/08/24 05:40,  999.0,   -0.1,   -0.1,   -0.1,   -0.1,   -0.1,   -0.2,   -0.1,   -0.0,   -0.1,  999.0,   -0.3,    0.1,    0.2,  999.0,  999.0,  999.0,  999.0,  999.0,  999.0,  999.0,  999.0,  999.0,  999.0,    9.4,  999.0,  999.0,    9.4,    9.4,    9.4,    9.4,    9.4,    9.4,    9.4,    9.4,    9.4,    9.4,    9.4,    9.4,    9.4,    9.4,    9.4,    9.4,    9.4,    9.5,    9.4,    9.4,    9.4,    9.4,    9.5,    9.4,    9.5,    9.5,    9.5,  999.0,  999.0,  999.0,  999.0,  999.0,  999.0,  999.0,  999.0,  999.0
2005/08/24 05:50,  999.0,    0.0,   -0.0,   -0.0,   -0.1,   -0.1,   -0.3,   -0.0,   -0.0,   -0.1,    0.1,    0.0,    0.2,    0.1,   -0.2,  999.0,   -0.3,  999.0,  999.0,  999.0,  999.0,  999.0,  999.0,  999.0,  999.0,    9.4,  999.0,    9.4,    9.4,    9.4,    9.4,    9.4,    9.4,    9.4,    9.4,    9.4,    9.4,    9.4,    9.4,    9.4,    9.4,    9.4,    9.4,    9.4,    9.4,    9.4,    9.3,    9.4,    9.4,    9.4,    9.4,  999.0,    9.3,    9.4,  999.0,  999.0,  999.0,  999.0,  999.0,  999.0,  999.0,  999.0,  999.0
2005/08/24 06:00,  999.0,    0.1,    0.8,    0.3,    0.2,   -0.1,   -0.3,   -0.1,   -0.1,    0.0,   -0.1,   -0.0,    0.1,   -0.2,   -0.2,  999.0,   -0.1,  999.0,  999.0,  999.0,  999.0,  999.0,  999.0,  999.0,  999.0,  999.0,  999.0,    9.4,    9.4,    9.4,    9.4,    9.4,    9.4,    9.4,    9.4,    9.4,    9.4,    9.4,    9.4,    9.4,    9.4,    9.4,    9.4,    9.4,    9.4,    9.5,  999.0,    9.4,    9.4,    9.6,  999.0,    9.4,    9.5,  999.0,  999.0,  999.0,  999.0,  999.0,  999.0,  999.0,  999.0,  999.0,  999.0
2005/08/24 06:10,  999.0,   -0.1,    0.1,    0.0,   -0.2,   -0.2,   -0.1,   -0.1,    0.1,   -0.0,   -0.0,    0.1,  999.0,  999.0,    0.8,    0.9,  999.0,  999.0,  999.0,    1.9,  999.0,   -9.4,   -9.4,   -9.4,   -4.7,   -4.7,   -3.1,   -4.7,   -4.7,   -2.3,   -2.3,   -2.3,   -4.7,   -2.3,   -2.3,   -2.3,   -2.3,   -4.7,   -2.3,   -2.4,   -2.3,   -4.7,   -2.3,   -2.4,   -2.3,   -4.7,   -2.3,   -6.3,   -4.7,   -3.2,   -4.7,    9.4,  999.0,  999.0,  999.0,  999.0,  999.0,  999.0,    0.1,  999.0,  999.0,  999.0,  999.0
2005/08/24 06:20,  999.0,  999.0,    0.2,    0.2,   -0.2,   -0.2,   -0.0,    0.0,    0.1,    0.1,    0.1,    0.1,    0.1,  999.0,  999.0,  999.0,  999.0,  999.0,  999.0,  999.0,  999.0,    9.4,    9.4,    9.4,    9.4,    9.4,    9.4,    9.4,    9.4,    9.4,    9.4,    9.4,    9.4,    9.4,    9.4,    9.4,    9.4,    9.4,    9.4,    9.4,    9.4,    9.4,    9.4,    9.4,    9.4,    9.4,    9.4,    9.4,    9.4,    9.5,    9.4,  999.0,  999.0,  999.0,  999.0,  999.0,  999.0,  999.0,  999.0,  999.0,  999.0,  999.0,  999.0
2005/08/24 06:30,  999.0,  999.0,    0.0,    0.0,    0.0,   -0.2,   -0.3,   -0.2,   -0.2,   -0.5,  999.0,   -0.1,    0.0,  999.0,    0.1,  999.0,  999.0,  999.0,  999.0,  999.0,  999.0,    9.4,    9.4,    9.4,    9.4,    9.4,    9.4,    9.4,    9.4,    9.4,    9.4,    9.4,    9.4,    9.4,    9.4,    9.4,    9.4,    9.4,    9.4,    9.4,    9.4,    9.4,    9.4,    9.4,    9.4,    9.4,    9.5,    9.5,    9.5,  999.0,    3.8,  999.0,   -0.4,   -5.3,  999.0,  999.0,  999.0,  999.0,  999.0,  999.0,  999.0,  999.0,  999.0
2005/08/24 06:40,  999.0,   -0.1,  999.0,   -0.3,   -0.0,   -0.2,   -0.2,   -0.3,   -0.2,   -0.2,   -0.3,   -0.1,   -0.1,  999.0,   -0.3,  999.0,  999.0,  999.0,  999.0,  999.0,  999.0,  999.0,  999.0,   -0.0,    2.9,  999.0,  999.0,    9.4,    9.4,  999.0,    9.4,    9.4,  999.0,  999.0,    6.3,    6.3,    9.4,    6.3,    7.0,    9.4,    9.4,    9.4,   -3.1,    0.0,  999.0,    0.0,   -3.1,  999.0,  999.0,   -2.9,   -2.8,   -2.4,   -2.4,   -1.1,   -1.9,   -1.3,  999.0,   -0.3,  999.0,  999.0,  999.0,  999.0,  999.0
2005/08/24 06:50,  999.0,    0.1,    0.2,   -0.4,   -0.3,   -0.3,   -0.0,   -0.3,   -0.4,   -0.4,   -0.3,    0.0,   -0.2,   -0.2,  999.0,   -0.3,  999.0,  999.0,   -6.4,  999.0,   -6.3,   -2.8,   -3.8,   -5.9,   -3.7,   -4.7,   -4.7,   -1.9,   -9.4,   -3.1,   -1.5,   -4.7,   -4.7,   -3.1,   -4.7,   -1.9,    0.0,   -3.5,   -0.9,    2.4,    3.1,    2.4,   -1.2,    0.0,   -0.5,   -5.2,   -0.6,  999.0,   -1.4,   -1.4,   -1.4,   -1.3,   -1.1,   -1.0,   -0.9,  999.0,   -0.4,   -0.2,  999.0,  999.0,  999.0,  999.0,  999.0
2005/08/24 07:00,  999.0,    0.2,   -0.3,   -0.2,   -0.1,   -0.3,   -0.2,   -0.2,   -0.3,   -0.2,   -0.2,  999.0,  999.0,  999.0,   -0.2,  999.0,  999.0,  999.0,  999.0,  999.0,   -9.4,   -9.4,   -9.4,   -9.4,   -9.4,   -9.4,   -9.4,   -9.4,   -9.4,   -9.4,   -9.4,   -9.4,   -9.4,   -9.4,   -9.4,   -9.4,   -9.4,   -9.4,   -9.4,   -9.4,   -9.4,   -9.4,   -9.4,   -9.4,   -9.4,   -9.4,   -9.4,   -9.4,   -9.4,  999.0,  999.0,  999.0,   -5.1,   -9.4,  999.0,  999.0,  999.0,  999.0,  999.0,  999.0,  999.0,  999.0,  999.0
2005/08/24 07:10,  999.0,    0.2,    0.1,   -0.3,   -0.4,   -0.1,   -0.4,   -0.3,   -0.3,   -0.4,   -0.2,   -0.1,    0.0,  999.0,  999.0,  999.0,  999.0,   -0.5,  999.0,   -4.9,    0.0,  999.0,  999.0,  999.0,    6.2,    2.3,    2.3,    3.1,    3.1,   -0.0,    0.0,   -2.4,   -3.1,    0.0,   -4.7,   -4.7,   -3.2,   -3.1,   -3.1,   -3.1,   -0.0,    0.0,    0.0,   -0.0,    0.0,    0.0,    0.0,    0.1,    3.1,  999.0,    4.7,  999.0,  999.0,  999.0,  999.0,   -9.4,  999.0,  999.0,  999.0,  999.0,  999.0,  999.0,  999.0
2005/08/24 07:20,  999.0,    0.1,    0.1,   -0.1,   -0.2,   -0.1,   -0.2,    0.1,    0.0,   -0.1,   -0.2,  999.0,  999.0,  999.0,  999.0,  999.0,  999.0,  999.0,  999.0,  999.0,    9.4,    9.4,    9.4,    9.4,    9.4,    9.4,    9.4,    9.4,    9.4,    9.4,    9.4,    9.4,    9.4,    9.4,    9.4,    9.4,    9.4,    9.4,    9.4,    9.4,    9.4,    9.4,    9.4,    9.4,    9.4,    9.4,    9.4,    9.5,    9.4,    9.4,    9.4,    9.4,  999.0,  999.0,  999.0,  999.0,  999.0,  999.0,  999.0,  999.0,  999.0,  999.0,  999.0
2005/08/24 07:30,  999.0,    0.3,    0.2,   -0.1,   -0.1,   -0.0,   -0.0,   -0.2,   -0.0,   -0.1,   -0.0,    0.1,  999.0,    0.1,    0.1,    0.2,    0.1,  999.0,  999.0,  999.0,  999.0,  999.0,  999.0,  999.0,  999.0,  999.0,  999.0,  999.0,    9.4,    9.4,    9.4,    9.4,    9.4,    9.4,    9.4,    9.4,    9.4,    9.4,    9.4,    9.4,    9.4,    9.4,    9.4,    9.4,    9.4,    9.4,    9.4,    9.4,    9.4,    9.4,    9.4,    9.4,  999.0,    9.4,  999.0,  999.0,  999.0,  999.0,  999.0,  999.0,  999.0,  999.0,  999.0
2005/08/24 07:40,  999.0,    0.1,    0.2,    0.0,   -0.1,    0.1,    0.1,   -0.1,   -0.2,    0.1,    0.0,    0.0,    0.1,    0.0,    0.1,   -0.0,   -0.0,  999.0,  999.0,   -1.0,   -0.0,    0.0,  999.0,    1.5,    3.1,   -1.6,  999.0,  999.0,  999.0,  999.0,    9.4,    9.4,    9.4,    9.4,    9.4,  999.0,    9.4,    9.4,    9.4,    9.4,    9.4,    9.4,    9.4,    9.4,    9.4,  999.0,  999.0,    9.4,  999.0,  999.0,  999.0,  999.0,  999.0,  999.0,  999.0,  999.0,  999.0,  999.0,  999.0,  999.0,  999.0,  999.0,  999.0
2005/08/24 07:50,  999.0,    0.1,    0.2,    0.2,   -0.2,   -0.1,   -0.3,   -0.2,   -0.4,   -0.3,   -0.2,   -0.2,   -0.2,   -0.2,   -0.1,  999.0,    4.5,    9.4,    2.0,    4.5,  999.0,    4.7,  999.0,   -2.4,   -1.9,   -2.5,   -4.7,   -4.7,   -4.7,   -4.7,   -4.7,   -4.7,   -4.7,   -4.7,   -4.7,   -4.7,   -4.7,   -6.3,   -7.1,   -7.0,   -7.1,   -7.1,   -6.3,   -3.2,   -3.1,   -4.7,   -4.7,   -7.1,   -7.1,   -9.5,  999.0,   -9.4,   -3.2,  999.0,  999.0,  999.0,  999.0,  999.0,  999.0,  999.0,  999.0,  999.0,  999.0
2005/08/24 08:00,  999.0,    0.1,    0.1,    0.2,   -0.0,    0.1,   -0.2,    0.1,   -0.1,  999.0,  999.0,  999.0,  999.0,    0.2,    0.3,    0.3,    0.2,  999.0,    4.7,  999.0,  999.0,  999.0,   -9.4,   -9.4,   -9.4,   -9.4,   -9.4,   -9.4,   -9.4,   -9.4,   -9.4,   -9.4,   -9.4,   -9.4,   -9.4,   -9.4,   -9.4,   -9.4,   -9.4,   -9.4,   -9.4,   -9.4,   -9.4,   -9.4,   -9.4,   -9.5,   -9.4,   -9.3,   -9.4,   -9.5,   -9.3,   -9.4,  999.0,   -9.5,  999.0,  999.0,  999.0,  999.0,  999.0,  999.0,  999.0,  999.0,  999.0
2005/08/24 08:10,  999.0,    0.1,    0.1,   -0.0,    0.3,    0.1,    0.3,   -0.0,   -0.1,   -0.3,   -0.1,   -0.1,    0.1,    0.1,    0.1,    0.2,    0.3,    0.0,   -0.0,   -0.1,   -0.1,  999.0,  999.0,  999.0,  999.0,  999.0,  999.0,  999.0,  999.0,  999.0,  999.0,  999.0,  999.0,  999.0,  999.0,  999.0,  999.0,  999.0,  999.0,  999.0,  999.0,  999.0,  999.0,  999.0,  999.0,  999.0,    3.2,    3.1,    3.1,    2.3,    9.4,    3.1,    3.2,    9.5,    9.5,    3.1,    9.5,  999.0,  999.0,  999.0,  999.0,  999.0,  999.0
2005/08/24 08:20,  999.0,    0.2,    0.0,   -0.2,    0.3,    0.1,    0.1,   -0.0,    0.0,   -0.1,   -0.1,   -0.0,   -0.0,    0.0,    0.1,   -0.0,    0.2,   -1.0,   -1.0,    0.4,  999.0,   -4.6,  999.0,  999.0,   -7.0,   -9.4,   -9.4,   -9.4,   -9.4,   -7.5,   -7.5,   -5.6,   -7.5,   -7.5,   -5.6,   -5.6,   -9.4,   -7.5,   -5.6,   -4.7,   -7.5,   -7.5,   -5.6,   -9.4,   -9.4,  999.0,    9.4,    4.7,   -4.7,   -1.9,    9.4,   -4.7,    0.0,  999.0,  999.0,   -4.2,  999.0,  999.0,  999.0,  999.0,  999.0,  999.0,  999.0
2005/08/24 08:30,  999.0,    0.2,    0.2,    0.2,   -0.4,    0.2,    0.3,    0.1,    0.4,   -0.1,   -0.4,    0.2,    0.1,    0.1,    0.1,    0.1,    0.1,    0.0,    0.1,   -0.1,    0.1,    0.2,    0.0,  999.0,   -0.0,  999.0,  999.0,  999.0,   -9.4,   -9.4,   -9.4,   -9.4,   -9.4,   -9.4,   -9.4,   -9.4,   -9.4,   -9.4,   -9.4,   -9.4,   -9.4,   -9.5,   -9.4,   -9.4,  999.0,  999.0,  999.0,  999.0,  999.0,  999.0,  999.0,  999.0,  999.0,  999.0,  999.0,  999.0,  999.0,  999.0,  999.0,  999.0,  999.0,  999.0,  999.0
2005/08/24 08:40,  999.0,    0.2,    0.2,   -0.1,   -0.1,    0.1,    0.2,    0.5,    0.4,   -0.1,   -0.2,   -0.0,   -0.0,   -0.0,    0.1,    0.1,    0.1,    0.1,    0.0,    0.1,    0.0,    0.0,    0.1,  999.0,   -4.6,   -9.4,   -7.0,   -7.0,   -7.0,   -9.4,   -9.4,   -6.3,   -9.4,   -9.4,   -9.4,   -7.0,   -7.0,   -7.0,   -9.4,   -9.4,   -7.1,   -9.4,   -9.4,   -7.0,   -7.1,   -9.4,   -7.0,   -9.4,   -6.2,   -9.4,   -9.4,   -9.5,   -6.3,  999.0,  999.0,  999.0,  999.0,  999.0,  999.0,  999.0,  999.0,  999.0,  999.0
2005/08/24 08:50,  999.0,    0.1,    0.1,    0.1,    0.1,   -0.1,    0.1,    0.2,    0.3,    0.3,    0.1,    0.4,    0.1,    0.1,    0.0,  999.0,   -0.1,    0.7,    0.2,    0.2,  999.0,  999.0,  999.0,  999.0,   -9.4,   -9.4,   -9.4,   -9.4,   -9.4,   -9.4,   -9.4,   -9.4,   -9.4,   -9.4,   -9.4,   -9.4,   -9.4,   -9.4,   -9.4,   -9.4,   -9.4,   -9.4,   -9.4,   -9.4,  999.0,   -9.4,   -9.4,  999.0,   -9.5,  999.0,   -9.3,  999.0,  999.0,  999.0,  999.0,  999.0,  999.0,  999.0,  999.0,  999.0,  999.0,  999.0,  999.0
2005/08/24 09:00,  999.0,    0.0,   -0.1,   -0.2,    0.0,   -0.1,   -0.3,   -0.1,   -0.0,   -0.1,   -0.2,   -0.1,   -0.0,    0.0,    0.0,    0.1,    0.2,    0.3,    0.4,    0.3,    0.2,    0.0,   -0.1,  999.0,    2.7,  999.0,  999.0,  999.0,  999.0,  999.0,   -4.7,   -2.3,   -4.7,   -4.7,   -4.7,    0.0,   -4.7,   -7.0,   -9.4,   -3.1,   -7.0,   -4.7,   -6.3,   -7.0,   -7.1,   -6.2,   -7.1,   -4.7,   -9.4,   -4.7,   -9.5,   -7.1,  999.0,  999.0,   -0.0,  999.0,  999.0,  999.0,  999.0,  999.0,  999.0,  999.0,  999.0
2005/08/24 09:10,  999.0,    0.2,    0.1,   -0.3,   -0.1,    0.1,   -0.0,   -0.0,   -0.0,    0.1,   -0.1,   -0.1,   -0.1,   -0.1,   -0.1,   -0.1,   -0.0,   -0.0,   -0.1,  999.0,   -0.0,   -0.0,   -3.2,   -0.1,   -0.1,   -3.2,   -7.0,   -3.1,   -9.4,   -0.0,   -0.0,    1.2,   -1.1,   -1.2,    1.2,    0.0,   -0.1,   -0.0,   -0.0,   -0.0,    3.1,    0.0,    0.0,   -0.1,   -0.0,    0.0,    0.0,   -0.0,    3.1,    0.0,   -3.2,  999.0,  999.0,   -9.4,  999.0,  999.0,  999.0,  999.0,  999.0,  999.0,  999.0,  999.0,  999.0
2005/08/24 09:20,  999.0,   -0.0,    0.5,   -0.0,    0.1,    0.1,    0.1,    0.2,    0.3,    0.2,    0.3,    0.0,   -0.1,   -0.1,   -0.0,    0.0,    0.0,   -0.2,   -0.2,    0.1,  999.0,  999.0,   -0.1,  999.0,    0.0,  999.0,  999.0,  999.0,  999.0,   -4.7,  999.0,  999.0,   -4.6,   -9.3,   -9.3,   -9.3,   -7.0,   -7.0,   -9.4,   -9.4,   -9.4,   -9.4,   -9.3,   -7.5,   -9.4,   -9.4,   -9.4,   -9.4,   -9.4,  999.0,  999.0,  999.0,  999.0,  999.0,  999.0,  999.0,  999.0,  999.0,  999.0,  999.0,  999.0,  999.0,  999.0
2005/08/24 09:30,  999.0,    0.0,   -0.1,    0.1,    0.2,   -0.0,   -0.3,   -0.3,   -0.3,   -0.0,   -0.1,   -0.2,   -0.2,   -0.2,   -0.1,  999.0,   -0.0,  999.0,  999.0,  999.0,  999.0,  999.0,  999.0,  999.0,  999.0,   -0.0,   -3.1,   -4.7,   -6.2,   -6.2,   -7.0,   -9.4,   -9.4,   -3.1,   -7.0,   -7.0,   -9.4,   -9.4,   -7.0,   -4.7,   -5.8,   -6.1,   -5.9,   -5.9,   -2.3,   -9.4,   -3.5,   -3.5,   -4.8,   -9.5,  999.0,   -3.2,  999.0,  999.0,   -3.1,    0.0,  999.0,  999.0,  999.0,  999.0,  999.0,  999.0,  999.0
2005/08/24 09:40,  999.0,    0.1,    0.1,   -0.0,   -0.1,   -0.1,   -0.3,   -0.5,   -0.2,   -0.3,   -0.2,   -0.2,   -0.3,   -0.2,   -0.2,   -0.2,   -0.1,  999.0,   -0.2,   -0.1,  999.0,  999.0,  999.0,  999.0,  999.0,    9.4,    9.4,    9.4,    9.4,    9.4,    4.7,    4.7,    4.7,    4.7,    4.7,    1.9,    4.7,    1.9,   -0.0,    1.9,    4.7,    4.7,    1.9,    1.9,    1.9,   -0.0,    1.9,   -3.2,    1.9,   -9.5,   -9.4,   -9.3,  999.0,   -9.3,  999.0,  999.0,  999.0,  999.0,  999.0,  999.0,  999.0,  999.0,  999.0
2005/08/24 09:50,  999.0,   -0.1,    0.1,   -0.1,   -0.2,   -0.1,   -0.5,   -0.6,   -0.3,   -0.3,   -0.4,   -0.5,   -0.4,   -0.2,   -0.3,   -0.5,   -0.4,   -0.2,   -0.1,   -0.1,   -0.0,   -0.1,  999.0,  999.0,  999.0,  999.0,  999.0,    9.4,    9.4,    9.3,    9.4,    9.4,    9.4,    9.4,    9.4,    9.4,    9.4,    9.4,    9.4,    9.4,    9.4,    9.4,    9.4,    6.2,    9.4,    9.4,    6.3,    6.0,    9.5,  999.0,  999.0,  999.0,  999.0,  999.0,  999.0,  999.0,  999.0,  999.0,  999.0,  999.0,  999.0,  999.0,  999.0
2005/08/24 10:00,  999.0,    0.1,    0.3,   -0.1,    0.1,    0.3,    0.1,   -0.1,   -0.1,   -0.2,   -0.2,   -0.0,   -0.1,   -0.1,   -0.1,   -0.1,   -0.2,   -0.1,   -0.0,    0.1,   -0.0,   -0.0,    0.0,   -0.2,    2.2,    2.2,  999.0,  999.0,  999.0,  999.0,    4.6,  999.0,  999.0,  999.0,  999.0,  999.0,  999.0,  999.0,  999.0,  999.0,    3.2,    0.1,    1.1,    4.6,   -4.7,  999.0,  999.0,  999.0,   -4.8,  999.0,  999.0,  999.0,  999.0,  999.0,  999.0,  999.0,  999.0,  999.0,  999.0,  999.0,  999.0,  999.0,  999.0
2005/08/24 10:10,  999.0,    0.2,    0.2,   -0.1,   -0.1,    0.2,   -0.0,   -0.2,   -0.5,   -0.6,   -0.4,   -0.4,   -0.5,   -0.5,   -0.4,   -0.2,    0.0,   -0.2,    0.0,    0.1,    0.1,    0.1,    0.0,    0.0,   -0.1,   -0.3,  999.0,  999.0,  999.0,  999.0,  999.0,  999.0,  999.0,  999.0,  999.0,  999.0,  999.0,   -9.4,   -7.0,   -9.4,   -8.4,   -9.5,   -7.5,   -9.4,   -9.4,   -9.5,   -9.5,   -9.4,   -9.4,   -9.4,   -9.4,   -9.4,   -9.4,   -9.4,  999.0,   -9.3,   -9.4,  999.0,  999.0,  999.0,  999.0,  999.0,  999.0
2005/08/24 10:20,  999.0,    0.0,   -0.2,   -0.3,   -0.4,   -0.4,   -0.4,   -0.6,   -0.7,   -0.8,   -0.6,   -0.5,   -0.5,   -0.4,   -0.5,   -0.5,   -0.4,   -0.3,    0.1,   -0.0,   -0.0,   -0.2,   -0.2,   -0.1,   -0.2,   -0.2,    0.0,  999.0,  999.0,  999.0,  999.0,  999.0,  999.0,  999.0,  999.0,  999.0,  999.0,  999.0,   -9.4,   -9.4,   -9.4,   -9.4,   -9.3,   -9.4,   -9.4,   -9.4,   -9.4,   -9.4,   -9.4,   -9.4,   -9.3,   -9.4,   -9.5,  999.0,  999.0,   -9.4,  999.0,  999.0,  999.0,  999.0,  999.0,  999.0,  999.0
2005/08/24 10:30,  999.0,   -0.0,   -0.1,   -0.3,   -0.3,   -0.2,   -0.4,   -0.6,   -0.6,   -0.8,   -0.7,   -0.7,   -0.5,   -0.4,   -0.5,   -0.5,   -0.4,   -0.2,   -0.2,    0.1,    0.2,    0.0,   -0.0,   -0.0,   -0.2,   -0.3,  999.0,  999.0,  999.0,  999.0,  999.0,  999.0,  999.0,   -9.4,   -9.4,   -9.4,   -9.4,   -9.4,   -9.4,   -9.4,   -9.4,   -9.4,   -9.4,   -9.4,   -9.4,   -9.4,   -9.5,   -9.4,   -9.4,  999.0,   -9.4,  999.0,  999.0,  999.0,  999.0,  999.0,  999.0,  999.0,  999.0,  999.0,  999.0,  999.0,  999.0
2005/08/24 10:40,  999.0,    0.1,   -0.2,   -0.5,   -0.3,   -0.4,   -0.3,   -0.4,   -0.7,   -0.7,   -0.4,   -0.6,   -0.1,   -0.1,   -0.0,    0.1,    0.0,    0.1,    0.1,   -0.1,   -0.1,   -0.1,   -0.2,  999.0,  999.0,  999.0,  999.0,  999.0,  999.0,  999.0,  999.0,  999.0,  999.0,  999.0,   -0.0,   -6.3,   -4.6,   -0.0,   -4.7,   -6.3,   -3.1,    0.0,   -7.0,   -4.7,  999.0,  999.0,  999.0,  999.0,  999.0,  999.0,  999.0,  999.0,  999.0,  999.0,  999.0,  999.0,  999.0,  999.0,  999.0,  999.0,  999.0,  999.0,  999.0
2005/08/24 10:50,  999.0,    0.1,   -0.0,    0.1,   -0.1,   -0.3,   -0.4,   -0.6,   -0.7,   -0.9,   -0.8,   -0.7,   -0.3,   -0.3,   -0.3,    0.0,   -0.4,   -0.0,   -0.0,    0.2,    0.1,   -0.0,    0.0,  999.0,  999.0,  999.0,  999.0,  999.0,  999.0,  999.0,  999.0,  999.0,   -9.3,  999.0,   -9.4,   -9.4,   -9.4,  999.0,   -9.4,   -9.3,   -9.4,  999.0,   -9.4,   -9.3,  999.0,  999.0,  999.0,  999.0,  999.0,  999.0,  999.0,  999.0,  999.0,  999.0,  999.0,  999.0,  999.0,  999.0,  999.0,  999.0,  999.0,  999.0,  999.0
2005/08/24 11:00,  999.0,   -0.1,   -0.0,    0.0,    0.0,   -0.0,   -0.2,   -0.5,   -0.6,   -0.7,   -0.7,   -0.6,   -0.3,   -0.0,    0.2,    0.1,  999.0,   -0.5,   -0.4,   -0.7,   -0.5,   -0.2,   -0.1,   -0.1,   -0.1,    0.0,   -0.0,   -0.1,    0.2,  999.0,    0.0,    0.1,  999.0,   -2.5,   -4.7,  999.0,  999.0,  999.0,   -0.1,  999.0,    0.2,   -4.6,  999.0,  999.0,  999.0,  999.0,  999.0,    0.1,  999.0,  999.0,  999.0,  999.0,  999.0,  999.0,  999.0,  999.0,  999.0,  999.0,  999.0,  999.0,  999.0,  999.0,  999.0
2005/08/24 11:10,  999.0,   -0.1,   -0.1,   -0.4,   -0.3,   -0.6,   -0.5,   -0.6,   -0.8,   -0.9,   -0.8,   -0.8,   -0.4,   -0.0,   -0.0,    0.1,    0.1,    0.2,    0.2,    0.1,    0.2,    0.1,    0.1,    0.0,    0.0,  999.0,  999.0,  999.0,  999.0,  999.0,  999.0,  999.0,  999.0,  999.0,   -6.3,   -9.4,   -9.4,   -9.4,  999.0,   -9.3,   -5.8,   -5.9,  999.0,   -4.7,  999.0,   -9.5,  999.0,  999.0,  999.0,  999.0,  999.0,  999.0,  999.0,  999.0,  999.0,  999.0,  999.0,  999.0,  999.0,  999.0,  999.0,  999.0,  999.0
2005/08/24 11:20,  999.0,   -0.2,   -0.3,   -0.2,   -0.9,   -0.8,   -1.0,   -1.1,   -1.1,   -0.8,   -0.4,   -0.4,   -0.3,   -0.0,    0.0,    0.2,    0.2,    0.3,  999.0,    0.2,    0.1,    0.1,    0.1,    0.1,  999.0,  999.0,  999.0,  999.0,  999.0,  999.0,  999.0,   -9.4,  999.0,   -9.3,   -9.4,   -9.3,  999.0,   -9.4,   -9.4,   -9.3,   -9.4,  999.0,   -9.4,  999.0,  999.0,  999.0,  999.0,  999.0,  999.0,  999.0,  999.0,  999.0,  999.0,  999.0,  999.0,  999.0,  999.0,  999.0,  999.0,  999.0,  999.0,  999.0,  999.0
2005/08/24 11:30,  999.0,    0.0,   -0.4,   -0.4,   -0.3,   -0.8,   -0.8,   -0.5,   -0.5,   -0.7,   -0.6,   -0.5,   -0.3,   -0.3,   -0.1,    0.1,    0.1,  999.0,   -0.1,    0.4,   -0.2,   -0.1,   -0.3,   -0.4,   -0.3,  999.0,  999.0,  999.0,  999.0,  999.0,  999.0,  999.0,  999.0,  999.0,   -9.3,   -9.4,  999.0,  999.0,   -9.3,   -9.3,   -9.4,  999.0,  999.0,  999.0,  999.0,  999.0,  999.0,  999.0,  999.0,  999.0,  999.0,  999.0,  999.0,  999.0,  999.0,  999.0,  999.0,  999.0,  999.0,  999.0,  999.0,  999.0,  999.0
2005/08/24 11:40,  999.0,   -0.2,   -0.2,   -0.3,   -0.6,   -0.7,   -0.7,   -0.5,   -0.6,   -0.7,   -0.7,   -0.7,   -0.3,   -0.3,   -0.1,    0.1,    0.2,    0.2,    0.2,    0.1,    0.3,    0.1,    0.1,   -0.0,    0.0,   -0.1,  999.0,   -0.3,  999.0,  999.0,  999.0,   -0.3,  999.0,  999.0,  999.0,  999.0,  999.0,  999.0,  999.0,  999.0,  999.0,  999.0,  999.0,  999.0,  999.0,  999.0,  999.0,  999.0,  999.0,  999.0,  999.0,  999.0,  999.0,  999.0,  999.0,  999.0,  999.0,  999.0,  999.0,  999.0,  999.0,  999.0,  999.0
2005/08/24 11:50,  999.0,   -0.0,   -0.1,   -0.6,   -1.0,   -1.2,   -0.8,   -0.5,   -0.7,   -0.6,   -0.8,   -0.7,   -0.4,  999.0,   -0.1,    0.0,    0.0,    0.1,    0.2,    0.3,  999.0,   -0.1,    0.0,    0.0,   -0.1,   -0.1,   -0.1,   -0.5,   -0.4,    0.0,   -0.2,   -0.1,  999.0,  999.0,  999.0,  999.0,  999.0,  999.0,  999.0,  999.0,  999.0,  999.0,  999.0,  999.0,  999.0,  999.0,  999.0,  999.0,  999.0,  999.0,  999.0,  999.0,  999.0,  999.0,  999.0,  999.0,  999.0,  999.0,  999.0,  999.0,  999.0,  999.0,  999.0
2005/08/24 12:00,  999.0,   -0.2,   -0.2,   -0.5,   -0.7,   -0.3,   -0.3,   -0.5,   -0.5,   -0.5,   -0.6,   -0.7,   -0.4,   -0.3,   -0.1,   -0.0,    0.2,    0.2,    0.3,    0.5,    0.5,    0.3,    0.2,    0.1,   -0.3,   -0.5,   -0.1,   -0.1,   -0.2,   -0.2,   -0.0,  999.0,  999.0,  999.0,  999.0,  999.0,  999.0,  999.0,  999.0,  999.0,  999.0,  999.0,  999.0,  999.0,  999.0,  999.0,  999.0,  999.0,  999.0,  999.0,  999.0,  999.0,  999.0,   -0.3,   -0.3,  999.0,  999.0,  999.0,  999.0,  999.0,   -0.3,   -0.3,  999.0
2005/08/24 12:10,  999.0,   -0.1,   -0.2,   -0.1,   -0.5,   -0.3,   -0.4,   -0.4,   -0.1,   -0.0,   -0.1,    0.0,    0.1,  999.0,    0.0,    0.1,    0.2,    0.3,    0.3,    0.4,    0.4,  999.0,    0.6,   -0.1,   -0.1,  999.0,  999.0,   -0.5,   -0.1,   -0.1,    0.0,  999.0,  999.0,  999.0,  999.0,  999.0,  999.0,  999.0,  999.0,  999.0,  999.0,  999.0,  999.0,  999.0,  999.0,  999.0,  999.0,  999.0,  999.0,  999.0,  999.0,  999.0,  999.0,  999.0,  999.0,  999.0,  999.0,  999.0,  999.0,  999.0,  999.0,  999.0,  999.0
2005/08/24 12:20,  999.0,   -0.0,   -0.1,   -0.1,   -0.2,   -0.3,   -0.3,   -0.6,   -0.4,   -0.5,   -0.4,   -0.5,   -0.3,   -0.2,   -0.2,    0.0,    0.0,    0.1,    0.1,    0.1,    0.3,    0.0,    0.0,    0.1,   -0.1,   -0.1,   -0.1,   -0.1,   -0.1,    0.1,    0.2,    0.2,  999.0,  999.0,  999.0,  999.0,  999.0,  999.0,  999.0,  999.0,  999.0,  999.0,  999.0,  999.0,  999.0,  999.0,  999.0,  999.0,  999.0,  999.0,  999.0,  999.0,  999.0,  999.0,  999.0,  999.0,  999.0,  999.0,   -0.2,  999.0,  999.0,   -0.2,  999.0
2005/08/24 12:30,  999.0,   -0.1,   -0.1,   -0.2,   -0.2,   -0.3,   -0.8,   -0.6,   -0.9,   -0.7,   -0.8,   -0.5,   -0.7,   -0.3,   -0.4,   -0.1,   -0.0,    0.1,   -0.0,    0.1,   -0.1,  999.0,   -0.1,   -0.3,   -0.0,   -0.0,   -0.2,   -0.0,    0.0,    0.1,   -0.0,    0.0,  999.0,  999.0,  999.0,   -0.1,    0.1,  999.0,  999.0,  999.0,  999.0,  999.0,  999.0,  999.0,  999.0,  999.0,  999.0,  999.0,  999.0,  999.0,  999.0,  999.0,  999.0,  999.0,  999.0,  999.0,  999.0,  999.0,  999.0,  999.0,  999.0,  999.0,  999.0
2005/08/24 12:40,  999.0,   -0.2,   -0.2,   -0.4,   -0.7,   -0.5,   -0.4,   -0.6,   -0.7,   -0.8,   -0.9,   -1.0,   -0.7,   -0.7,   -0.6,   -0.5,   -0.3,   -0.2,   -0.1,   -0.0,   -0.2,   -0.0,   -0.0,   -0.0,   -0.1,   -0.1,    0.1,   -0.0,   -0.1,   -0.2,    0.1,   -0.0,  999.0,  999.0,   -0.2,   -0.2,  999.0,  999.0,  999.0,  999.0,  999.0,  999.0,  999.0,  999.0,  999.0,  999.0,  999.0,  999.0,  999.0,  999.0,  999.0,  999.0,  999.0,  999.0,   -0.2,  999.0,  999.0,  999.0,  999.0,  999.0,  999.0,  999.0,  999.0
2005/08/24 12:50,  999.0,   -0.3,   -0.3,   -1.1,   -0.9,   -0.7,   -0.8,   -0.7,   -0.6,   -0.6,   -0.6,   -0.9,   -0.9,   -0.9,   -0.9,   -0.6,   -0.5,   -0.3,   -0.1,    0.1,    0.1,    0.1,  999.0,    0.2,    0.2,    0.3,    0.4,    0.2,    0.1,   -0.1,   -0.0,   -0.0,    0.0,  999.0,    0.0,   -0.2,  999.0,  999.0,  999.0,  999.0,  999.0,  999.0,  999.0,  999.0,  999.0,  999.0,  999.0,  999.0,  999.0,  999.0,  999.0,  999.0,  999.0,  999.0,  999.0,  999.0,   -0.5,   -0.5,  999.0,  999.0,  999.0,  999.0,  999.0
2005/08/24 13:00,  999.0,    0.0,   -0.1,   -0.0,   -0.1,   -0.1,    0.0,    0.1,    0.3,    0.3,    0.4,    0.5,    0.4,    0.3,    0.2,    0.1,   -0.0,   -0.0,   -0.1,   -0.1,    0.1,   -0.1,   -0.0,   -0.0,    0.2,    0.1,   -0.1,    0.0,    0.0,   -0.2,   -0.0,   -0.0,    0.1,  999.0,    0.0,  999.0,    0.0,  999.0,  999.0,  999.0,  999.0,  999.0,  999.0,  999.0,  999.0,  999.0,  999.0,  999.0,  999.0,  999.0,  999.0,  999.0,  999.0,  999.0,  999.0,  999.0,  999.0,  999.0,  999.0,  999.0,  999.0,  999.0,  999.0
2005/08/24 13:10,  999.0,   -0.1,   -0.0,   -0.1,    0.0,    0.0,    0.1,    0.2,    0.4,    0.5,    0.4,    0.2,    0.0,    0.0,   -0.0,    0.0,   -0.0,   -0.1,   -0.1,   -0.0,   -0.0,  999.0,   -0.2,   -0.2,   -0.1,    0.0,    0.0,   -0.0,   -0.0,   -0.1,   -0.1,  999.0,   -0.1,  999.0,   -0.0,  999.0,  999.0,  999.0,  999.0,  999.0,  999.0,   -0.1,  999.0,  999.0,  999.0,  999.0,  999.0,  999.0,  999.0,  999.0,  999.0,  999.0,  999.0,  999.0,  999.0,  999.0,  999.0,  999.0,  999.0,  999.0,  999.0,  999.0,  999.0
2005/08/24 13:20,  999.0,   -0.1,   -0.3,   -0.1,   -0.5,   -0.2,   -0.2,   -0.1,    0.0,   -0.1,   -0.1,    0.0,   -0.3,   -0.2,   -0.2,   -0.0,    0.0,    0.1,    0.1,    0.1,    0.1,  999.0,    0.0,    0.1,   -0.1,   -0.2,    0.4,   -0.0,   -0.1,   -0.1,   -0.1,  999.0,    0.2,  999.0,  999.0,   -0.1,  999.0,    0.1,  999.0,  999.0,  999.0,    0.1,  999.0,  999.0,  999.0,  999.0,  999.0,  999.0,  999.0,  999.0,  999.0,  999.0,  999.0,  999.0,  999.0,  999.0,  999.0,  999.0,  999.0,  999.0,  999.0,  999.0,  999.0
2005/08/24 13:30,  999.0,    0.0,   -0.0,    0.2,   -0.2,   -0.3,   -0.2,    0.0,    0.0,    0.1,    0.3,    0.1,    0.2,    0.2,    0.1,    0.2,    0.0,    0.2,    0.2,    0.2,    0.1,    0.1,   -0.0,   -0.0,   -0.1,   -0.1,    0.0,   -0.2,  999.0,   -0.1,   -0.0,  999.0,   -0.3,  999.0,  999.0,    0.0,  999.0,  999.0,  999.0,  999.0,  999.0,  999.0,  999.0,  999.0,  999.0,  999.0,  999.0,  999.0,  999.0,  999.0,  999.0,  999.0,  999.0,  999.0,  999.0,  999.0,  999.0,  999.0,  999.0,  999.0,  999.0,  999.0,  999.0
2005/08/24 13:40,  999.0,   -0.4,   -0.4,   -0.1,    0.1,   -0.4,   -0.8,   -0.6,   -0.6,   -0.3,   -0.3,   -0.3,   -0.3,   -0.5,   -0.5,   -0.2,   -0.2,   -0.1,   -0.2,   -0.4,   -0.4,   -0.3,   -0.1,   -0.2,   -0.1,   -0.2,   -0.2,   -0.3,  999.0,  999.0,   -0.0,  999.0,    0.0,  999.0,   -0.1,   -0.0,  999.0,  999.0,  999.0,  999.0,  999.0,  999.0,  999.0,  999.0,  999.0,  999.0,  999.0,  999.0,  999.0,  999.0,  999.0,  999.0,  999.0,  999.0,  999.0,  999.0,  999.0,  999.0,  999.0,  999.0,  999.0,  999.0,  999.0
2005/08/24 13:50,  999.0,   -0.7,   -0.8,   -1.3,   -1.3,   -1.6,   -1.5,   -1.4,   -1.3,   -1.1,   -1.1,   -0.8,   -0.6,   -0.6,   -0.5,   -0.3,   -0.2,   -0.3,   -0.1,    0.1,   -0.1,   -0.2,    0.0,    0.2,    0.3,    0.4,    0.3,    0.3,  999.0,   -0.0,  999.0,  999.0,  999.0,  999.0,  999.0,  999.0,  999.0,  999.0,  999.0,  999.0,  999.0,  999.0,  999.0,  999.0,  999.0,  999.0,  999.0,  999.0,  999.0,  999.0,  999.0,  999.0,  999.0,  999.0,  999.0,  999.0,  999.0,  999.0,  999.0,  999.0,  999.0,  999.0,  999.0
2005/08/24 14:00,  999.0,   -4.2,   -4.0,   -3.9,   -4.3,   -3.8,   -3.5,   -3.4,   -3.2,   -2.9,   -3.0,   -3.0,   -2.2,   -1.7,   -0.2,   -0.3,   -0.6,   -0.5,   -0.3,   -0.0,   -0.2,   -0.3,   -0.2,   -0.1,   -0.1,   -0.1,   -0.6,   -0.3,   -0.5,   -0.3,   -0.4,  999.0,   -0.2,    0.4,    0.1,  999.0,  999.0,  999.0,  999.0,  999.0,  999.0,  999.0,  999.0,  999.0,  999.0,  999.0,  999.0,  999.0,  999.0,  999.0,  999.0,  999.0,  999.0,  999.0,  999.0,  999.0,  999.0,  999.0,  999.0,  999.0,  999.0,  999.0,  999.0
2005/08/24 14:10,  999.0,   -1.8,   -1.8,   -1.4,   -1.1,   -1.0,   -0.7,   -0.6,   -0.9,   -0.9,   -0.9,   -0.8,   -1.0,   -1.0,   -0.9,   -0.6,   -0.5,   -0.4,   -0.4,   -0.3,   -0.3,   -0.2,   -0.0,    0.3,    0.3,    0.2,   -0.2,    0.1,   -0.1,   -0.1,   -0.0,    0.9,   -0.2,   -0.1,   -0.1,  999.0,  999.0,  999.0,  999.0,  999.0,  999.0,  999.0,  999.0,  999.0,  999.0,  999.0,  999.0,  999.0,  999.0,  999.0,  999.0,  999.0,  999.0,  999.0,  999.0,  999.0,  999.0,  999.0,  999.0,  999.0,  999.0,  999.0,  999.0
2005/08/24 14:20,  999.0,    0.1,    0.0,   -0.3,   -0.4,   -0.2,   -0.5,   -0.8,   -0.7,   -1.0,   -1.1,   -1.2,   -1.1,   -0.9,   -0.8,   -0.5,   -0.4,   -0.3,   -0.4,   -0.2,   -0.4,    0.0,    0.3,    0.3,    0.3,    0.2,    0.1,   -0.0,   -0.1,    0.0,  999.0,   -0.4,   -0.3,   -0.2,  999.0,  999.0,  999.0,   -0.1,  999.0,  999.0,  999.0,  999.0,  999.0,  999.0,  999.0,  999.0,  999.0,  999.0,  999.0,  999.0,  999.0,  999.0,    0.2,  999.0,  999.0,  999.0,  999.0,  999.0,  999.0,  999.0,    0.2,  999.0,    0.2
2005/08/24 14:30,  999.0,    0.0,    0.2,    0.1,   -0.1,   -0.0,   -0.3,   -0.3,   -0.5,   -0.4,   -0.5,   -0.5,   -0.5,   -0.5,   -0.4,   -0.2,   -0.1,   -0.0,   -0.0,   -0.1,   -0.0,   -0.0,    0.0,    0.0,    0.2,    0.1,    0.0,   -0.0,   -0.0,   -0.2,   -0.2,   -0.1,   -0.0,   -0.1,    0.0,    0.0,    0.0,   -0.0,    0.1,  999.0,    0.1,    0.0,    0.1,  999.0,  999.0,  999.0,  999.0,  999.0,  999.0,  999.0,  999.0,  999.0,  999.0,  999.0,  999.0,  999.0,  999.0,  999.0,  999.0,  999.0,  999.0,  999.0,  999.0
2005/08/24 14:40,  999.0,    0.1,   -0.1,   -0.2,   -0.7,   -0.1,   -0.3,   -0.5,   -0.4,   -0.2,   -0.0,   -0.1,    0.0,    0.2,    0.3,    0.2,    0.4,    0.5,    0.5,    0.1,    0.1,    0.5,    0.1,    0.1,    0.2,    0.1,    0.1,  999.0,    0.1,    0.2,    0.1,  999.0,    0.1,  999.0,  999.0,  999.0,  999.0,  999.0,   -0.0,  999.0,  999.0,  999.0,  999.0,  999.0,  999.0,  999.0,  999.0,  999.0,  999.0,  999.0,  999.0,  999.0,  999.0,  999.0,  999.0,  999.0,  999.0,  999.0,  999.0,  999.0,  999.0,  999.0,  999.0
2005/08/24 14:50,  999.0,    0.0,    0.1,    0.1,    0.1,    0.3,    0.0,   -0.1,   -0.0,   -0.1,   -0.1,   -0.2,    0.0,    0.1,    0.0,    0.0,   -0.0,    0.0,    0.2,    0.2,    0.3,    0.2,    0.3,    0.4,    0.1,    0.1,    0.0,    0.2,    0.3,    0.1,   -0.1,    0.1,    0.0,  999.0,    0.0,  999.0,   -0.2,    0.1,    0.2,    0.2,  999.0,  999.0,  999.0,  999.0,  999.0,  999.0,  999.0,  999.0,  999.0,  999.0,  999.0,  999.0,  999.0,  999.0,  999.0,  999.0,  999.0,  999.0,  999.0,  999.0,  999.0,  999.0,  999.0
2005/08/24 15:00,  999.0,    0.1,    0.3,    0.1,    0.1,   -0.2,   -0.3,   -0.0,   -0.5,   -0.7,   -0.9,   -0.7,   -0.5,   -0.3,   -0.3,   -0.1,   -0.2,   -0.3,   -0.4,   -0.1,    0.0,    0.2,    0.2,    0.0,   -0.2,   -0.2,   -0.1,   -0.1,   -0.1,    0.1,    0.1,    0.0,   -0.0,    0.0,  999.0,    0.0,  999.0,   -0.0,  999.0,    0.1,  999.0,  999.0,  999.0,  999.0,  999.0,  999.0,  999.0,  999.0,  999.0,  999.0,  999.0,  999.0,  999.0,  999.0,  999.0,  999.0,  999.0,  999.0,  999.0,  999.0,  999.0,  999.0,  999.0
2005/08/24 15:10,  999.0,   -0.1,   -0.0,    0.0,   -0.1,   -0.1,   -0.1,   -0.3,   -0.4,   -0.4,   -0.2,   -0.2,   -0.1,   -0.0,   -0.1,   -0.1,   -0.0,    0.0,    0.1,    0.1,    0.0,    0.3,   -0.1,   -0.0,    0.2,    0.0,    0.0,    0.1,   -0.1,  999.0,   -0.0,  999.0,   -0.2,   -0.1,  999.0,  999.0,  999.0,  999.0,   -0.1,  999.0,  999.0,  999.0,  999.0,  999.0,  999.0,  999.0,  999.0,  999.0,  999.0,  999.0,  999.0,  999.0,  999.0,  999.0,  999.0,  999.0,  999.0,  999.0,  999.0,  999.0,  999.0,  999.0,  999.0
2005/08/24 15:20,  999.0,   -0.2,   -0.2,   -0.1,    0.0,   -0.2,   -0.2,   -0.2,   -0.2,   -0.4,   -0.7,   -0.5,   -0.4,   -0.2,   -0.3,   -0.4,   -0.2,   -0.3,   -0.3,   -0.3,   -0.4,   -0.4,   -0.2,   -0.1,   -0.2,    0.1,    0.1,   -0.0,   -0.1,    0.2,    0.1,    0.1,    0.1,  999.0,  999.0,  999.0,  999.0,  999.0,  999.0,  999.0,  999.0,  999.0,  999.0,  999.0,  999.0,  999.0,  999.0,  999.0,  999.0,  999.0,  999.0,  999.0,  999.0,  999.0,    0.2,  999.0,  999.0,  999.0,  999.0,  999.0,  999.0,  999.0,  999.0
2005/08/24 15:30,  999.0,   -0.1,   -0.0,   -0.0,    0.1,    0.1,    0.2,    0.1,    0.1,   -0.1,   -0.2,   -0.3,   -0.2,   -0.2,   -0.1,   -0.1,   -0.1,   -0.1,    0.0,   -0.0,   -0.2,   -0.2,   -0.2,   -0.3,   -0.2,   -0.1,   -0.0,   -0.0,   -0.1,   -0.2,   -0.2,   -0.2,   -0.2,   -0.3,  999.0,  999.0,  999.0,  999.0,  999.0,   -0.2,   -0.1,  999.0,  999.0,  999.0,  999.0,  999.0,  999.0,  999.0,  999.0,  999.0,  999.0,  999.0,  999.0,  999.0,    0.2,    0.2,    0.2,    0.2,    0.2,    0.2,  999.0,  999.0,  999.0
2005/08/24 15:40,  999.0,   -0.1,   -0.0,   -0.0,   -0.1,    0.1,    0.2,    0.4,    0.4,    0.2,    0.1,   -0.1,    0.0,    0.0,    0.1,    0.1,    0.1,    0.1,   -0.1,    0.1,   -0.1,   -0.2,   -0.2,   -0.4,   -0.4,   -0.3,   -0.1,   -0.1,   -0.2,   -0.2,   -0.1,   -0.1,   -0.1,   -0.2,  999.0,   -0.0,   -0.3,   -0.3,   -0.1,  999.0,  999.0,  999.0,  999.0,  999.0,  999.0,  999.0,  999.0,  999.0,  999.0,  999.0,  999.0,  999.0,  999.0,  999.0,  999.0,    0.2,    0.2,  999.0,  999.0,  999.0,    0.2,    0.2,  999.0
2005/08/24 15:50,  999.0,   -0.0,   -0.1,   -0.0,   -0.0,    0.1,    0.2,    0.3,    0.3,    0.3,    0.2,   -0.0,    0.3,   -0.0,   -0.1,   -0.1,   -0.0,    0.0,   -0.1,   -0.0,   -0.1,   -0.1,   -0.0,   -0.2,   -0.2,   -0.0,   -0.1,    0.0,   -0.0,   -0.0,    0.0,   -0.1,   -0.1,   -0.1,  999.0,  999.0,   -0.1,   -0.1,   -0.2,  999.0,  999.0,  999.0,  999.0,  999.0,  999.0,  999.0,  999.0,  999.0,  999.0,  999.0,  999.0,  999.0,  999.0,  999.0,  999.0,  999.0,  999.0,  999.0,  999.0,  999.0,  999.0,  999.0,    0.3
2005/08/24 16:00,  999.0,   -0.1,   -0.1,   -0.1,    0.0,    0.1,    0.2,    0.3,    0.4,    0.4,    0.2,    0.3,    0.0,    0.0,   -0.0,   -0.0,   -0.1,   -0.0,   -0.0,   -0.1,   -0.1,   -0.1,   -0.2,   -0.2,    0.0,    0.1,    0.1,    0.2,    0.0,   -0.0,   -0.2,   -0.2,  999.0,    0.0,  999.0,    0.0,    0.0,    0.0,    0.0,   -0.1,  999.0,  999.0,    0.1,  999.0,  999.0,  999.0,  999.0,  999.0,  999.0,  999.0,  999.0,  999.0,  999.0,  999.0,  999.0,  999.0,  999.0,  999.0,  999.0,  999.0,  999.0,  999.0,  999.0
2005/08/24 16:10,  999.0,    0.0,   -0.0,    0.0,    0.2,    0.2,   -0.0,    0.2,    0.2,    0.6,    0.2,    0.2,    0.2,    0.4,    0.2,    0.1,   -0.0,    0.1,    0.1,    0.0,   -0.0,   -0.0,   -0.1,   -0.2,  999.0,   -0.1,   -0.0,    0.0,  999.0,    0.0,   -0.1,   -0.1,  999.0,  999.0,   -0.0,   -0.0,  999.0,    0.1,   -0.0,   -0.2,  999.0,  999.0,  999.0,  999.0,  999.0,  999.0,  999.0,  999.0,  999.0,  999.0,  999.0,  999.0,  999.0,  999.0,  999.0,  999.0,  999.0,  999.0,  999.0,  999.0,  999.0,   -0.2,  999.0
2005/08/24 16:20,  999.0,   -0.0,   -0.1,   -0.2,   -0.5,   -0.1,   -0.2,   -0.2,   -0.4,   -0.4,   -0.0,    0.0,   -0.0,   -0.2,    0.1,    0.1,    0.1,    0.0,   -0.0,   -0.1,   -0.2,   -0.2,   -0.0,   -0.3,   -0.3,   -0.2,   -0.2,   -0.1,    0.1,   -0.1,   -0.0,   -0.1,  999.0,  999.0,  999.0,   -0.1,    0.0,    0.1,    0.0,    0.0,  999.0,  999.0,  999.0,  999.0,  999.0,  999.0,  999.0,  999.0,  999.0,  999.0,  999.0,  999.0,  999.0,  999.0,  999.0,  999.0,  999.0,  999.0,  999.0,  999.0,  999.0,  999.0,   -0.2
2005/08/24 16:30,  999.0,    0.1,    0.3,    0.2,    0.2,   -0.0,   -0.1,   -0.1,   -0.3,   -0.4,   -0.2,   -0.1,   -0.0,   -0.1,   -0.1,   -0.2,   -0.2,   -0.1,   -0.1,   -0.2,  999.0,   -0.2,   -0.2,   -0.4,   -0.3,   -0.0,   -0.0,   -0.0,  999.0,    0.2,  999.0,  999.0,  999.0,  999.0,  999.0,   -0.0,   -0.2,    0.0,   -0.1,   -0.3,  999.0,  999.0,  999.0,  999.0,  999.0,  999.0,  999.0,  999.0,  999.0,  999.0,  999.0,  999.0,  999.0,  999.0,  999.0,  999.0,  999.0,  999.0,  999.0,  999.0,  999.0,   -0.2,   -0.2
2005/08/24 16:40,  999.0,    0.0,    0.1,    0.4,    0.5,    0.5,    0.5,    0.4,    0.3,    0.1,   -0.1,   -0.2,   -0.3,   -0.1,   -0.1,   -0.2,   -0.3,   -0.3,   -0.3,   -0.2,   -0.2,   -0.2,   -0.5,   -0.5,   -0.7,  999.0,   -0.5,   -0.3,   -0.1,    0.1,    0.3,  999.0,  999.0,  999.0,  999.0,    0.1,  999.0,  999.0,  999.0,    0.1,  999.0,   -0.0,  999.0,  999.0,  999.0,  999.0,  999.0,  999.0,  999.0,  999.0,  999.0,  999.0,  999.0,  999.0,  999.0,  999.0,  999.0,  999.0,  999.0,  999.0,   -0.2,  999.0,   -0.2
2005/08/24 16:50,  999.0,    0.0,    0.1,    0.0,    0.4,    0.4,    0.4,    0.1,    0.1,   -0.1,   -0.2,   -0.2,   -0.3,   -0.3,   -0.2,   -0.1,   -0.1,   -0.3,   -0.3,   -0.3,   -0.1,   -0.3,   -0.6,   -0.8,  999.0,  999.0,   -0.3,   -0.5,   -0.0,   -0.1,    0.1,  999.0,    0.0,  999.0,  999.0,   -0.0,  999.0,  999.0,  999.0,  999.0,  999.0,  999.0,  999.0,  999.0,  999.0,  999.0,  999.0,  999.0,  999.0,  999.0,  999.0,  999.0,  999.0,  999.0,  999.0,  999.0,  999.0,  999.0,  999.0,  999.0,  999.0,  999.0,  999.0
2005/08/24 17:00,  999.0,    0.0,    0.0,   -0.0,    0.2,    0.3,    0.1,    0.1,    0.1,    0.0,    0.1,   -0.1,   -0.1,   -0.1,   -0.2,   -0.2,   -0.2,   -0.1,    0.1,  999.0,   -0.2,   -0.5,   -0.7,   -0.6,   -0.1,  999.0,   -0.4,    0.0,  999.0,  999.0,    0.5,  999.0,  999.0,  999.0,  999.0,    0.1,   -0.0,  999.0,    0.1,  999.0,   -0.0,  999.0,  999.0,  999.0,  999.0,  999.0,  999.0,  999.0,  999.0,  999.0,  999.0,  999.0,  999.0,  999.0,  999.0,  999.0,  999.0,  999.0,  999.0,  999.0,  999.0,  999.0,  999.0
2005/08/24 17:10,  999.0,   -0.1,   -0.0,   -0.1,   -0.0,   -0.0,    0.1,    0.2,    0.1,   -0.1,   -0.2,   -0.4,   -0.5,   -0.7,   -0.3,   -0.4,   -0.3,   -0.3,   -0.1,   -0.1,  999.0,   -0.1,   -0.0,   -0.2,   -0.1,   -0.2,   -0.0,   -0.0,   -0.1,   -0.1,    0.1,    0.2,    0.1,  999.0,  999.0,    0.1,    0.1,  999.0,  999.0,  999.0,   -0.1,  999.0,  999.0,   -0.1,  999.0,  999.0,  999.0,  999.0,  999.0,  999.0,  999.0,  999.0,  999.0,  999.0,  999.0,  999.0,  999.0,  999.0,  999.0,  999.0,  999.0,  999.0,  999.0
2005/08/24 17:20,  999.0,   -0.0,   -0.1,   -0.1,   -0.2,   -0.2,   -0.1,   -0.1,   -0.0,   -0.1,    0.0,   -0.1,   -0.1,    0.1,   -0.0,    0.0,   -0.0,    0.1,    0.1,    0.0,    0.0,   -0.1,    0.3,    0.2,    0.1,   -0.0,    0.1,    0.0,   -0.0,   -0.1,   -0.1,   -0.2,   -0.2,   -0.1,  999.0,    0.0,    0.0,   -0.0,  999.0,  999.0,  999.0,   -0.0,  999.0,   -0.1,  999.0,  999.0,  999.0,  999.0,  999.0,  999.0,  999.0,  999.0,  999.0,  999.0,  999.0,  999.0,  999.0,  999.0,  999.0,  999.0,  999.0,  999.0,  999.0
2005/08/24 17:30,  999.0,   -0.0,   -0.0,   -0.0,    0.1,   -0.0,   -0.0,    0.2,    0.2,    0.4,    0.5,    0.8,    0.2,    0.5,    0.1,    0.1,    0.2,    0.2,    0.2,    0.4,    0.1,    0.2,  999.0,    0.2,    0.4,    1.0,    0.8,    0.7,    0.2,    0.4,   -0.2,   -0.1,   -0.3,  999.0,  999.0,   -0.0,   -0.0,   -0.1,  999.0,  999.0,    0.0,  999.0,  999.0,  999.0,  999.0,  999.0,  999.0,  999.0,  999.0,  999.0,  999.0,  999.0,  999.0,  999.0,  999.0,  999.0,  999.0,  999.0,  999.0,  999.0,  999.0,  999.0,  999.0
2005/08/24 17:40,  999.0,    0.0,   -0.1,   -0.1,   -0.2,   -0.1,   -0.1,   -0.0,   -0.1,   -0.1,   -0.2,   -0.4,   -0.2,   -0.2,   -0.2,    0.0,   -0.1,   -0.0,   -0.0,    0.0,    0.1,    0.2,    0.2,    0.0,    0.3,    0.2,    0.3,   -0.0,   -0.1,    0.0,  999.0,    0.1,    0.0,  999.0,  999.0,  999.0,   -0.0,    0.0,   -0.0,  999.0,  999.0,  999.0,  999.0,   -0.2,  999.0,  999.0,  999.0,  999.0,  999.0,  999.0,  999.0,  999.0,  999.0,  999.0,  999.0,  999.0,  999.0,  999.0,  999.0,  999.0,  999.0,  999.0,  999.0
2005/08/24 17:50,  999.0,   -0.0,   -0.1,   -0.1,   -0.1,   -0.0,   -0.1,    0.1,    0.2,   -0.2,   -0.4,   -0.5,   -0.6,   -0.8,   -0.8,   -0.6,   -0.2,   -0.3,   -0.2,   -0.1,   -0.2,    0.0,    0.1,    0.0,    0.1,    0.1,   -0.0,   -0.2,   -0.1,   -0.2,   -0.1,    0.0,    0.1,  999.0,  999.0,   -0.0,   -0.0,    0.1,  999.0,  999.0,  999.0,  999.0,  999.0,    0.1,  999.0,  999.0,  999.0,  999.0,  999.0,  999.0,  999.0,  999.0,  999.0,  999.0,  999.0,  999.0,  999.0,  999.0,  999.0,  999.0,  999.0,  999.0,  999.0
2005/08/24 18:00,  999.0,   -0.0,   -0.1,   -0.2,   -0.2,   -0.2,   -0.0,   -0.0,   -0.0,   -0.1,   -0.2,   -0.4,   -0.3,   -0.2,   -0.2,   -0.2,   -0.2,   -0.2,   -0.1,    0.3,    0.1,  999.0,  999.0,  999.0,    0.0,  999.0,    0.1,   -0.1,    0.1,    0.0,   -0.3,   -0.3,   -0.1,   -0.0,   -0.1,  999.0,  999.0,  999.0,  999.0,  999.0,   -0.1,  999.0,  999.0,  999.0,   -0.1,  999.0,  999.0,  999.0,  999.0,  999.0,  999.0,  999.0,  999.0,  999.0,  999.0,  999.0,  999.0,  999.0,  999.0,  999.0,  999.0,  999.0,  999.0
2005/08/24 18:10,  999.0,   -0.0,   -0.1,   -0.1,   -0.2,   -0.0,    0.1,    0.1,    0.2,    0.2,   -0.0,   -0.1,   -0.2,   -0.2,    0.0,    0.1,    0.1,    0.4,    0.3,    0.4,    0.7,    0.7,    0.4,   -0.1,  999.0,    0.1,    0.1,   -0.0,   -0.1,   -0.2,   -0.4,   -0.3,   -0.4,   -0.4,  999.0,  999.0,    0.2,  999.0,  999.0,  999.0,  999.0,    0.0,  999.0,  999.0,  999.0,  999.0,  999.0,  999.0,  999.0,  999.0,  999.0,  999.0,  999.0,  999.0,  999.0,  999.0,  999.0,  999.0,  999.0,  999.0,  999.0,  999.0,  999.0
2005/08/24 18:20,  999.0,    0.2,    0.2,    0.1,    0.4,    0.3,    0.4,    0.3,    0.4,    0.3,   -0.0,   -0.3,   -0.4,   -0.4,   -0.5,   -0.4,   -0.2,   -0.3,   -0.2,   -0.2,   -0.2,   -0.0,   -0.0,    0.1,  999.0,   -0.3,   -0.4,   -0.5,   -0.8,   -0.5,   -0.6,   -0.2,   -0.4,   -0.6,   -0.2,    0.0,   -0.0,  999.0,  999.0,    0.0,    0.1,  999.0,  999.0,  999.0,  999.0,  999.0,  999.0,  999.0,  999.0,  999.0,  999.0,  999.0,  999.0,  999.0,  999.0,  999.0,  999.0,  999.0,  999.0,  999.0,  999.0,  999.0,  999.0
2005/08/24 18:30,  999.0,   -0.0,    0.0,    0.0,   -0.3,   -0.0,    0.1,    0.0,   -0.1,   -0.2,   -0.3,   -0.3,   -0.7,   -0.8,   -1.0,   -1.0,   -0.8,   -0.9,   -0.8,   -0.2,   -0.5,   -0.4,   -0.4,   -0.0,  999.0,   -0.3,   -0.1,   -0.4,   -0.8,   -0.6,   -0.3,   -0.1,    0.3,  999.0,    0.1,    0.1,    0.0,    0.1,    0.1,  999.0,    0.1,  999.0,  999.0,  999.0,   -0.2,  999.0,  999.0,  999.0,  999.0,  999.0,  999.0,  999.0,  999.0,  999.0,  999.0,  999.0,  999.0,  999.0,  999.0,  999.0,  999.0,  999.0,  999.0
2005/08/24 18:40,  999.0,    0.0,   -0.3,    0.0,   -0.1,    0.0,    0.1,   -0.0,   -0.1,   -0.2,   -0.3,   -0.4,   -0.5,   -0.7,   -0.7,   -0.6,   -0.5,   -0.5,   -0.3,   -0.1,   -0.1,   -0.1,   -0.1,   -0.0,  999.0,  999.0,  999.0,  999.0,  999.0,  999.0,  999.0,  999.0,    9.4,    9.4,    9.4,    7.0,    9.4,    9.4,    7.0,    9.4,    7.6,    7.0,    9.4,    9.4,    7.0,    9.4,    9.4,    9.4,    9.4,    9.4,    9.4,    9.5,  999.0,  999.0,  999.0,  999.0,  999.0,  999.0,  999.0,  999.0,  999.0,  999.0,  999.0
2005/08/24 18:50,  999.0,   -0.3,    0.0,   -0.1,   -0.1,   -0.2,   -0.0,   -0.2,   -0.2,   -0.4,   -0.5,   -0.6,   -0.5,   -0.7,   -0.6,   -0.6,   -0.7,   -0.8,   -0.7,   -0.2,   -0.2,    0.1,    0.0,   -0.1,   -0.1,  999.0,  999.0,  999.0,  999.0,  999.0,  999.0,  999.0,  999.0,  999.0,  999.0,  999.0,  999.0,    9.3,    9.4,    9.4,    9.4,    9.4,    9.4,    9.4,    9.4,    9.4,    9.4,    9.4,    9.4,  999.0,    9.5,  999.0,  999.0,  999.0,  999.0,  999.0,  999.0,  999.0,  999.0,  999.0,  999.0,  999.0,  999.0
2005/08/24 19:00,  999.0,  999.0,   -3.4,   -2.5,   -3.6,  999.0,   -3.4,   -3.4,   -3.2,   -2.7,   -2.3,   -2.1,   -2.2,   -2.1,   -2.0,   -1.9,   -1.6,   -2.4,   -0.9,   -0.6,   -2.0,   -2.0,   -2.9,   -3.9,   -2.8,    0.3,    0.1,  999.0,  999.0,   -4.5,   -3.1,   -9.4,  999.0,   -4.7,  999.0,   -9.4,  999.0,    0.0,    0.1,    0.2,   -0.0,    9.4,    0.1,   -0.2,   -3.1,   -3.2,  999.0,  999.0,  999.0,  999.0,  999.0,  999.0,  999.0,  999.0,  999.0,  999.0,  999.0,  999.0,  999.0,  999.0,  999.0,  999.0,  999.0
2005/08/24 19:10,  999.0,   -4.0,   -3.8,   -3.0,   -2.8,   -2.6,   -2.9,   -2.6,   -2.4,   -2.4,   -2.3,   -2.8,   -2.9,   -2.8,   -2.4,   -1.4,   -1.1,   -0.6,   -0.5,   -0.4,   -0.2,    0.3,    0.8,    6.9,   -0.3,    2.0,    2.2,    0.0,    0.0,    0.0,    3.1,    3.1,    3.1,    4.7,    4.7,    4.7,    4.7,    4.7,    4.7,    4.7,    4.7,    3.1,    4.7,    4.7,    3.1,    3.1,    3.1,    9.5,    0.0,  999.0,  999.0,  999.0,  999.0,  999.0,  999.0,  999.0,  999.0,  999.0,  999.0,  999.0,  999.0,  999.0,  999.0
2005/08/24 19:20,  999.0,   -2.9,   -2.2,   -2.2,   -1.4,   -0.5,   -0.7,    0.1,   -0.3,   -0.1,   -0.2,   -0.3,   -0.3,   -0.7,   -0.7,   -0.5,   -0.5,   -0.4,   -0.8,   -0.6,   -0.5,   -0.5,   -0.4,   -0.7,   -0.8,  999.0,   -0.3,  999.0,  999.0,  999.0,    4.5,  999.0,  999.0,  999.0,    9.4,    9.4,   -4.7,   -7.0,   -3.7,   -3.8,   -3.8,   -7.0,   -3.7,   -2.4,   -3.8,   -0.0,  999.0,   -3.2,  999.0,  999.0,  999.0,  999.0,  999.0,  999.0,  999.0,  999.0,  999.0,  999.0,  999.0,  999.0,  999.0,  999.0,  999.0
2005/08/24 19:30,  999.0,    0.1,   -0.0,   -0.1,   -0.2,    0.1,    0.2,    0.1,    0.1,   -0.1,   -0.1,   -0.3,   -0.5,   -0.7,   -1.1,   -1.1,   -0.9,   -1.0,   -0.9,   -0.5,   -0.3,   -0.4,   -0.2,   -0.4,  999.0,  999.0,  999.0,  999.0,  999.0,  999.0,  999.0,   -9.4,   -9.4,   -9.4,   -9.4,   -7.5,   -9.4,   -9.4,   -9.4,   -9.4,   -9.4,   -9.4,   -9.4,   -9.4,   -9.3,   -9.4,   -9.4,   -9.4,   -9.3,  999.0,   -9.5,  999.0,  999.0,  999.0,  999.0,  999.0,  999.0,  999.0,  999.0,  999.0,  999.0,  999.0,  999.0
2005/08/24 19:40,  999.0,    0.1,   -0.1,    0.0,    0.1,    0.2,    0.2,    0.1,   -0.0,   -0.0,   -0.0,   -0.1,   -0.1,   -0.3,   -0.1,   -0.1,   -0.1,   -0.6,   -0.3,   -0.1,    0.0,    0.1,    0.1,  999.0,  999.0,  999.0,  999.0,  999.0,  999.0,  999.0,  999.0,  999.0,   -9.4,   -9.4,   -9.4,   -9.4,   -9.4,   -9.4,   -9.4,   -9.4,   -9.4,   -9.4,   -9.5,   -9.4,   -9.4,   -9.4,   -9.4,   -9.4,   -9.4,  999.0,  999.0,  999.0,  999.0,  999.0,  999.0,  999.0,  999.0,  999.0,  999.0,  999.0,  999.0,  999.0,  999.0
2005/08/24 19:50,  999.0,   -0.2,   -0.3,   -0.1,    0.1,    0.3,    0.2,    0.2,    0.2,    0.0,    0.1,    0.0,   -0.0,   -0.2,   -0.5,  999.0,   -0.2,   -0.1,   -0.1,    0.1,    0.0,    0.0,    0.2,    0.1,  999.0,   -0.1,  999.0,  999.0,  999.0,  999.0,  999.0,  999.0,  999.0,  999.0,  999.0,  999.0,  999.0,  999.0,  999.0,  999.0,  999.0,   -9.4,   -9.4,   -9.4,   -9.4,   -9.4,   -9.5,   -9.5,  999.0,   -9.5,   -9.4,  999.0,  999.0,   -9.5,  999.0,  999.0,  999.0,  999.0,  999.0,  999.0,  999.0,  999.0,  999.0
2005/08/24 20:00,  999.0,    0.1,    0.1,   -0.0,   -0.1,    0.1,    0.0,   -0.0,   -0.2,   -0.2,   -0.2,   -0.2,   -0.2,   -0.4,   -0.4,   -0.6,   -0.6,   -0.5,   -0.6,   -0.6,   -0.2,   -0.1,   -0.0,   -0.0,  999.0,   -0.2,  999.0,  999.0,  999.0,  999.0,  999.0,  999.0,  999.0,  999.0,  999.0,  999.0,  999.0,   -9.4,   -9.4,   -9.4,   -9.4,   -9.4,   -9.4,   -9.4,   -9.4,   -9.4,   -9.4,   -9.3,   -9.4,  999.0,  999.0,   -9.6,   -9.3,  999.0,  999.0,  999.0,  999.0,  999.0,  999.0,  999.0,  999.0,  999.0,  999.0
2005/08/24 20:10,  999.0,   -0.1,   -0.3,    0.0,   -0.2,   -0.0,   -0.2,   -0.3,   -0.3,   -0.3,   -0.4,   -0.6,   -0.7,   -0.9,   -1.1,   -0.7,   -1.0,   -1.0,   -0.8,   -0.9,   -0.8,   -0.5,   -0.2,    0.0,    0.1,  999.0,    0.1,  999.0,  999.0,  999.0,  999.0,  999.0,  999.0,  999.0,  999.0,  999.0,  999.0,  999.0,   -9.4,   -9.4,   -9.4,   -9.4,   -4.7,   -9.4,   -4.7,   -1.8,   -3.7,   -2.4,   -4.7,  999.0,  999.0,  999.0,   -9.3,  999.0,  999.0,  999.0,  999.0,  999.0,  999.0,  999.0,  999.0,  999.0,  999.0
2005/08/24 20:20,  999.0,   -0.2,   -0.3,   -0.1,   -0.3,   -0.5,   -0.5,   -0.5,   -0.5,   -0.4,   -0.3,   -0.2,   -0.2,   -0.3,   -0.5,   -0.5,   -0.4,   -0.5,   -0.6,   -0.5,   -0.3,   -0.2,   -0.1,    0.0,    0.1,   -0.2,    0.1,    0.3,  999.0,    0.0,  999.0,  999.0,  999.0,  999.0,  999.0,  999.0,  999.0,  999.0,  999.0,  999.0,  999.0,  999.0,  999.0,    9.4,    9.4,    9.4,    9.4,    9.4,    9.4,  999.0,  999.0,  999.0,  999.0,  999.0,  999.0,    9.7,    9.4,  999.0,  999.0,  999.0,  999.0,  999.0,  999.0
2005/08/24 20:30,  999.0,   -0.1,   -0.1,   -0.2,   -0.3,   -0.1,   -0.0,   -0.1,   -0.2,   -0.2,   -0.1,   -0.2,   -0.3,   -0.1,   -0.0,    0.1,    0.1,    0.1,    0.1,    0.0,   -0.1,    0.1,    0.1,    0.2,    0.3,    0.4,    0.7,    0.1,  999.0,  999.0,  999.0,  999.0,  999.0,  999.0,  999.0,  999.0,  999.0,  999.0,  999.0,  999.0,  999.0,  999.0,  999.0,  999.0,  999.0,  999.0,  999.0,  999.0,  999.0,  999.0,    9.4,  999.0,  999.0,  999.0,  999.0,  999.0,  999.0,  999.0,  999.0,  999.0,  999.0,  999.0,  999.0
2005/08/24 20:40,  999.0,   -0.2,   -0.2,   -0.0,   -0.3,   -0.3,   -0.2,   -0.2,   -0.2,   -0.3,   -0.2,   -0.2,   -0.3,   -0.4,   -0.7,   -0.2,   -0.2,   -0.3,   -0.7,   -0.7,   -0.3,   -0.4,   -0.3,    0.1,   -0.0,  999.0,  999.0,  999.0,  999.0,  999.0,  999.0,  999.0,  999.0,  999.0,   -9.4,   -9.4,   -9.4,   -9.4,   -9.4,   -9.4,   -9.4,   -9.4,   -9.3,   -9.4,   -9.4,   -9.4,   -9.4,   -9.5,   -9.4,  999.0,  999.0,  999.0,  999.0,  999.0,  999.0,  999.0,  999.0,  999.0,  999.0,  999.0,  999.0,  999.0,  999.0
2005/08/24 20:50,  999.0,   -0.1,   -0.0,   -0.1,   -0.4,   -0.4,   -0.2,   -0.3,   -0.3,   -0.3,   -0.4,   -0.3,   -0.2,   -0.3,   -0.3,   -0.3,   -0.2,   -0.7,   -0.5,   -0.5,   -0.3,   -0.1,   -0.1,   -0.2,    0.3,  999.0,  999.0,  999.0,  999.0,  999.0,  999.0,  999.0,  999.0,   -9.4,   -9.4,   -9.4,   -9.4,   -9.4,   -9.4,   -9.4,   -9.4,   -9.4,   -9.4,   -9.4,   -9.4,   -9.4,   -9.5,   -9.4,   -9.3,  999.0,   -9.4,  999.0,  999.0,  999.0,  999.0,  999.0,  999.0,  999.0,  999.0,  999.0,  999.0,  999.0,  999.0
2005/08/24 21:00,  999.0,   -0.1,    0.0,   -0.2,   -0.4,   -0.4,   -0.3,   -0.3,   -0.2,   -0.2,   -0.1,   -0.1,   -0.0,   -0.1,    0.0,   -0.1,   -0.2,   -0.4,   -0.5,   -0.4,   -0.5,   -0.3,   -0.3,   -0.4,   -0.3,   -0.5,  999.0,  999.0,  999.0,  999.0,  999.0,  999.0,  999.0,  999.0,  999.0,  999.0,  999.0,  999.0,   -9.4,   -9.4,   -9.4,   -9.4,   -9.4,   -9.4,   -9.4,   -9.4,   -9.4,   -9.3,   -9.3,   -9.4,  999.0,  999.0,  999.0,  999.0,  999.0,  999.0,  999.0,  999.0,  999.0,  999.0,  999.0,  999.0,  999.0
2005/08/24 21:10,  999.0,   -0.1,   -0.2,   -0.2,   -0.5,   -0.4,   -0.3,   -0.3,   -0.3,   -0.5,   -0.5,   -0.3,    0.0,    0.1,    0.0,   -0.0,   -0.3,   -0.2,   -0.3,   -0.2,   -0.2,   -0.5,   -0.2,   -0.1,   -0.0,   -0.0,   -0.7,  999.0,  999.0,  999.0,  999.0,  999.0,  999.0,  999.0,  999.0,  999.0,  999.0,   -9.4,   -9.4,   -9.4,   -9.4,   -9.4,   -9.4,   -9.4,   -9.4,   -9.4,   -9.4,   -9.4,   -9.4,   -9.5,   -9.4,   -9.5,   -9.4,  999.0,  999.0,  999.0,  999.0,  999.0,  999.0,  999.0,  999.0,  999.0,  999.0
2005/08/24 21:20,  999.0,   -0.1,   -0.1,   -0.3,   -0.1,    0.1,    0.1,    0.3,  999.0,    0.2,    0.0,    0.0,    0.2,    0.4,    0.3,    0.0,   -0.0,   -0.1,   -0.5,  999.0,   -1.3,   -0.0,   -4.6,   -4.6,   -4.5,   -3.1,  999.0,  999.0,  999.0,   -9.4,   -9.4,   -9.4,   -9.4,   -9.4,  999.0,   -9.4,   -9.4,   -9.4,   -9.4,  999.0,   -9.4,   -9.4,   -9.4,   -9.4,  999.0,   -9.4,   -9.4,   -3.2,  999.0,  999.0,  999.0,  999.0,  999.0,  999.0,  999.0,  999.0,  999.0,  999.0,  999.0,  999.0,  999.0,  999.0,  999.0
2005/08/24 21:30,  999.0,   -0.2,    0.2,    0.1,    0.0,   -0.1,    0.3,    0.3,    0.5,    0.4,    0.2,    0.1,    0.4,    0.6,    0.3,   -0.0,    0.0,    0.1,    0.3,   -0.1,   -0.0,    0.1,   -0.9,   -1.8,   -3.1,  999.0,  999.0,  999.0,   -9.4,   -9.4,   -9.4,   -9.4,   -9.4,   -9.3,  999.0,   -9.4,   -9.5,  999.0,    4.7,    9.4,    9.4,    9.4,    9.4,    9.4,    9.4,    9.4,    9.5,    9.5,    9.5,    9.5,    9.4,    9.5,  999.0,  999.0,  999.0,  999.0,  999.0,  999.0,  999.0,  999.0,  999.0,  999.0,  999.0
2005/08/24 21:40,  999.0,   -0.1,    0.2,    0.2,   -0.3,    0.4,    0.6,    0.8,    0.6,    0.5,    0.6,    0.6,    0.8,    1.0,    0.4,   -0.0,    0.0,  999.0,    0.6,    0.8,  999.0,    0.1,    0.3,    0.5,    0.5,    6.3,    7.2,  999.0,  999.0,    9.4,  999.0,  999.0,  999.0,    9.4,    9.4,  999.0,    9.4,    3.1,   -0.0,    4.7,    3.8,    3.7,    0.0,   -2.3,   -0.0,   -0.0,    1.9,   -0.0,    2.3,    0.1,   -1.9,  999.0,  999.0,    9.4,  999.0,  999.0,  999.0,  999.0,  999.0,  999.0,  999.0,  999.0,  999.0
2005/08/24 21:50,  999.0,    0.2,    0.4,    0.4,    0.6,    0.3,    0.7,    0.6,    0.6,    0.6,    0.7,    0.8,    0.9,    1.0,    0.5,    0.0,    0.2,    0.5,    0.7,    0.5,    0.6,  999.0,    0.7,    0.3,    2.1,    0.7,  999.0,  999.0,  999.0,  999.0,  999.0,  999.0,    9.4,    9.4,    9.4,    9.4,    9.4,    9.4,    9.4,    9.4,    9.3,    9.4,    9.4,    9.4,    9.3,    9.4,  999.0,  999.0,  999.0,  999.0,  999.0,  999.0,  999.0,  999.0,  999.0,  999.0,  999.0,  999.0,  999.0,  999.0,  999.0,  999.0,  999.0
2005/08/24 22:00,  999.0,    0.0,    0.2,    0.3,    0.6,    1.0,    0.8,    0.8,    0.4,    0.5,    0.4,    0.2,    0.3,    0.3,    0.4,    0.3,   -0.0,    0.6,    0.8,  999.0,  999.0,  999.0,    0.1,   -0.2,   -0.3,   -0.2,   -0.4,   -0.6,   -0.8,  999.0,  999.0,  999.0,  999.0,  999.0,  999.0,  999.0,    9.4,  999.0,    9.4,    9.4,    9.4,    9.4,    9.4,    9.4,    9.4,    9.4,    9.4,    9.4,    9.4,    9.5,    9.4,  999.0,    9.4,  999.0,  999.0,  999.0,  999.0,  999.0,  999.0,  999.0,  999.0,  999.0,  999.0
2005/08/24 22:10,  999.0,    0.2,    0.4,   -0.1,   -0.3,    0.2,    0.4,    0.2,    0.3,    0.2,   -0.1,   -0.1,   -0.3,   -0.1,    0.2,    0.1,    0.0,    0.0,   -0.1,    0.0,  999.0,   -0.0,   -0.2,   -0.4,   -0.4,   -0.4,   -0.3,    0.1,   -0.2,   -0.6,    0.1,  999.0,    0.1,    0.0,  999.0,  999.0,  999.0,  999.0,  999.0,  999.0,    9.4,    9.4,    9.4,    9.4,    9.4,    9.3,    9.4,    9.4,    9.4,  999.0,  999.0,  999.0,  999.0,  999.0,  999.0,  999.0,  999.0,  999.0,  999.0,  999.0,  999.0,  999.0,  999.0
2005/08/24 22:20,  999.0,    0.0,    0.0,    0.1,   -0.1,   -0.3,   -0.1,   -0.2,   -0.3,   -0.3,   -0.2,   -0.2,   -0.5,   -0.1,   -0.2,   -0.1,   -0.3,   -0.2,   -0.3,   -0.5,   -0.7,    0.1,  999.0,   -0.4,   -0.3,   -0.2,    0.1,    0.1,    0.2,    0.2,    0.1,  999.0,  999.0,  999.0,  999.0,  999.0,  999.0,  999.0,  999.0,  999.0,  999.0,    9.4,    9.4,    9.4,    9.4,    9.4,    9.4,    9.4,    9.4,    9.4,    9.4,    9.4,    9.4,  999.0,  999.0,  999.0,  999.0,  999.0,  999.0,  999.0,  999.0,  999.0,  999.0
2005/08/24 22:30,  999.0,   -0.1,    0.2,   -0.1,   -0.3,    0.1,    0.5,    0.3,   -0.1,   -0.2,   -0.2,   -0.4,   -0.2,   -0.5,   -0.3,   -0.2,   -0.3,   -0.6,   -0.3,   -0.4,  999.0,   -0.1,   -0.5,   -0.5,   -0.5,   -0.2,   -0.2,   -0.1,   -0.1,  999.0,  999.0,  999.0,  999.0,  999.0,  999.0,   -9.4,   -9.4,   -9.4,   -9.4,   -9.4,   -9.4,   -9.4,   -9.4,   -9.4,   -9.4,   -9.4,   -9.4,   -9.4,   -9.4,   -9.4,  999.0,   -9.4,   -9.5,  999.0,  999.0,  999.0,  999.0,  999.0,  999.0,  999.0,  999.0,  999.0,  999.0
2005/08/24 22:40,  999.0,    0.0,    0.0,   -0.1,   -0.0,    0.1,   -0.1,   -0.3,   -0.2,   -0.4,   -0.3,   -0.3,   -0.5,   -0.4,   -0.3,   -0.4,   -0.2,   -0.2,   -0.4,   -0.2,  999.0,   -0.2,  999.0,  999.0,   -0.8,   -0.7,   -0.3,   -0.3,   -0.3,  999.0,  999.0,  999.0,  999.0,  999.0,  999.0,  999.0,  999.0,   -9.4,   -9.4,   -9.4,   -9.4,   -9.4,   -9.4,   -9.4,   -9.4,   -9.4,   -9.4,   -9.4,   -9.4,   -9.4,   -9.4,   -9.5,   -9.4,   -9.5,   -9.6,  999.0,  999.0,  999.0,  999.0,  999.0,  999.0,  999.0,  999.0
2005/08/24 22:50,  999.0,   -0.2,    0.1,    0.2,   -0.3,   -0.7,   -0.2,   -0.3,   -0.3,   -0.3,   -0.5,   -0.6,   -0.7,   -0.4,   -0.4,   -0.4,   -0.1,  999.0,    0.1,  999.0,  999.0,  999.0,  999.0,  999.0,    0.0,    0.0,    0.0,   -0.1,   -0.0,    0.0,   -4.7,   -4.7,   -7.0,   -6.2,   -4.7,   -9.4,   -7.0,   -7.0,   -4.7,   -7.0,   -7.0,   -4.7,   -9.4,   -9.4,   -7.1,   -4.7,   -4.7,   -4.7,   -4.8,   -3.1,   -0.0,   -4.8,  999.0,  999.0,  999.0,  999.0,  999.0,  999.0,  999.0,  999.0,  999.0,  999.0,  999.0
2005/08/24 23:00,  999.0,    0.2,    0.2,    0.4,   -0.1,   -0.7,   -0.4,   -0.3,   -0.3,   -0.4,   -0.3,   -0.5,   -0.6,   -0.4,   -0.3,   -0.4,   -0.5,   -0.3,   -0.2,   -0.2,   -0.4,    0.1,  999.0,  999.0,  999.0,  999.0,  999.0,  999.0,    9.4,  999.0,  999.0,   -0.0,    0.0,    0.0,   -4.7,   -9.4,   -3.1,   -9.4,   -5.6,   -5.7,   -3.1,   -3.2,   -9.4,   -5.7,   -4.7,   -4.7,   -9.4,   -5.7,   -5.7,   -3.1,  999.0,   -9.4,   -4.7,   -9.3,  999.0,   -9.5,  999.0,  999.0,  999.0,  999.0,  999.0,  999.0,  999.0
2005/08/24 23:10,  999.0,    0.0,   -0.0,    0.2,   -0.6,   -0.5,   -0.5,   -0.5,   -0.3,   -0.1,   -0.5,   -0.8,   -0.9,   -0.3,  999.0,   -0.4,   -0.6,   -0.4,   -0.7,   -0.2,   -1.1,  999.0,  999.0,  999.0,  999.0,  999.0,  999.0,  999.0,   -4.7,   -9.4,   -7.0,   -7.0,   -7.0,   -7.0,   -7.0,   -7.0,   -4.7,   -7.0,   -7.0,   -9.4,   -9.4,   -9.4,   -9.4,   -9.4,   -9.4,   -7.1,   -7.0,   -9.4,   -9.4,   -9.4,   -7.1,   -9.4,   -9.4,   -4.7,    0.1,   -6.2,  999.0,  999.0,  999.0,  999.0,  999.0,  999.0,  999.0
2005/08/24 23:20,  999.0,    0.1,    0.1,    0.2,   -0.3,   -0.1,    0.3,   -0.1,   -0.2,   -0.1,   -0.3,    0.0,   -0.2,   -0.3,   -0.2,   -0.1,   -0.3,   -0.6,   -0.4,   -0.6,   -0.7,   -0.4,   -0.1,   -0.6,   -0.3,  999.0,  999.0,  999.0,  999.0,   -9.4,   -9.4,   -9.4,   -9.4,   -9.4,   -9.4,   -9.4,   -9.4,   -9.4,   -9.4,   -9.4,   -9.4,   -9.4,   -9.4,   -9.4,   -9.4,   -9.4,   -9.4,   -9.4,   -9.4,   -9.4,   -9.4,   -9.4,   -9.4,   -9.4,  999.0,  999.0,  999.0,  999.0,  999.0,  999.0,  999.0,  999.0,  999.0
2005/08/24 23:30,  999.0,    0.2,   -0.1,    0.3,   -0.0,    0.1,    0.1,    0.2,    0.2,    0.2,    0.1,    0.0,    0.0,   -0.2,   -0.0,   -0.0,   -0.1,    0.0,   -0.1,   -0.0,   -0.3,   -0.2,   -0.2,  999.0,   -0.2,   -0.1,   -0.5,  999.0,  999.0,  999.0,  999.0,  999.0,  999.0,  999.0,  999.0,  999.0,  999.0,  999.0,   -9.4,   -9.4,   -9.4,   -9.4,   -9.4,   -9.4,   -9.4,   -9.4,   -9.4,   -9.4,   -9.4,   -9.4,   -9.4,   -9.4,   -9.4,   -9.6,  999.0,  999.0,   -9.4,  999.0,  999.0,  999.0,  999.0,  999.0,  999.0
2005/08/24 23:40,  999.0,   -0.1,    0.1,    0.1,   -0.2,   -0.0,   -0.0,    0.2,    0.2,    0.1,   -0.0,   -0.1,    0.0,   -0.1,   -0.0,   -0.0,   -0.1,   -0.2,   -0.2,   -0.2,   -0.2,   -0.1,   -0.2,   -0.2,   -0.1,    0.1,   -0.2,  999.0,  999.0,  999.0,  999.0,  999.0,  999.0,  999.0,  999.0,   -9.4,   -9.4,   -9.4,   -9.4,   -9.4,   -9.4,   -9.4,   -9.4,   -9.4,   -9.4,   -9.4,   -9.4,   -9.4,   -9.4,   -9.4,   -9.4,   -9.4,   -9.4,   -9.4,   -9.5,   -9.3,  999.0,  999.0,  999.0,  999.0,  999.0,  999.0,  999.0
2005/08/24 23:50,  999.0,    0.0,    0.0,   -0.2,   -0.3,   -0.0,    0.1,   -0.0,   -0.0,   -0.2,   -0.2,   -0.3,   -0.0,    0.1,    0.1,   -0.1,   -0.2,   -0.3,   -0.1,   -0.1,   -0.5,  999.0,   -0.5,  999.0,   -1.0,   -0.6,    4.4,    4.4,    6.2,    9.4,    9.4,    4.7,    4.7,    3.1,   -3.1,    4.7,    1.9,   -2.4,   -7.5,   -1.9,   -3.7,   -3.8,   -3.7,   -3.8,   -3.8,   -2.4,   -7.0,   -5.6,   -0.0,   -3.1,   -1.9,   -6.2,    2.4,    3.2,  999.0,   -9.4,   -9.4,  999.0,  999.0,  999.0,  999.0,  999.0,  999.0
